| time (UTC) | temp F | wind direction | speed knots | gust knots | rain 1hr in | rain 24hr in | rain mn in | humidity % | barometer mb |
| 20260505153303 | 67 | 215 | 4.3 | 9.6 | 0.00 | 0.72 | 0.72 | 77 | 1013.1 |
| 20260505153203 | 67 | 215 | 4.3 | 9.6 | 0.00 | 0.72 | 0.72 | 77 | 1013.1 |
| 20260505153103 | 67 | 215 | 4.3 | 9.6 | 0.00 | 0.72 | 0.72 | 77 | 1013.1 |
| 20260505153003 | 67 | 214 | 4.3 | 9.6 | 0.00 | 0.72 | 0.72 | 77 | 1013.1 |
| 20260505152903 | 67 | 215 | 4.3 | 9.6 | 0.00 | 0.72 | 0.72 | 77 | 1013.1 |
| 20260505152803 | 67 | 214 | 4.3 | 9.6 | 0.00 | 0.72 | 0.72 | 77 | 1013.2 |
| 20260505152703 | 67 | 213 | 4.3 | 9.6 | 0.00 | 0.72 | 0.72 | 77 | 1013.1 |
| 20260505152604 | 67 | 214 | 4.3 | 9.6 | 0.00 | 0.72 | 0.72 | 77 | 1013.1 |
| 20260505152504 | 67 | 215 | 4.3 | 9.6 | 0.00 | 0.72 | 0.72 | 77 | 1013.1 |
| 20260505152403 | 67 | 215 | 4.3 | 9.6 | 0.00 | 0.72 | 0.72 | 77 | 1013.1 |
| 20260505152305 | 67 | 213 | 4.3 | 9.6 | 0.00 | 0.72 | 0.72 | 77 | 1013.1 |
| 20260505152203 | 67 | 212 | 4.3 | 9.6 | 0.00 | 0.72 | 0.72 | 76 | 1013.1 |
| 20260505152103 | 67 | 211 | 4.3 | 9.6 | 0.00 | 0.72 | 0.72 | 76 | 1013.1 |
| 20260505152003 | 68 | 212 | 4.3 | 9.6 | 0.00 | 0.72 | 0.72 | 76 | 1013.1 |
| 20260505151903 | 68 | 212 | 4.3 | 9.6 | 0.00 | 0.72 | 0.72 | 76 | 1013.1 |
| 20260505151803 | 68 | 212 | 4.3 | 9.6 | 0.00 | 0.72 | 0.72 | 77 | 1013.1 |
| 20260505151703 | 68 | 213 | 4.3 | 9.6 | 0.00 | 0.72 | 0.72 | 76 | 1013.1 |
| 20260505151603 | 68 | 213 | 4.3 | 9.6 | 0.00 | 0.72 | 0.72 | 76 | 1013.0 |
| 20260505151503 | 68 | 210 | 4.3 | 9.6 | 0.00 | 0.72 | 0.72 | 75 | 1013.1 |
| 20260505151403 | 68 | 208 | 4.3 | 9.6 | 0.00 | 0.72 | 0.72 | 75 | 1013.1 |
| 20260505151303 | 68 | 208 | 4.3 | 9.6 | 0.00 | 0.72 | 0.72 | 75 | 1013.0 |
| 20260505151203 | 68 | 207 | 4.3 | 9.6 | 0.00 | 0.72 | 0.72 | 75 | 1013.0 |
| 20260505151103 | 68 | 207 | 4.3 | 9.6 | 0.00 | 0.72 | 0.72 | 74 | 1013.0 |
| 20260505151003 | 68 | 207 | 4.3 | 9.6 | 0.00 | 0.72 | 0.72 | 74 | 1013.0 |
| 20260505150903 | 68 | 207 | 4.3 | 9.6 | 0.00 | 0.72 | 0.72 | 74 | 1013.1 |
| 20260505150803 | 68 | 209 | 4.3 | 9.6 | 0.00 | 0.72 | 0.72 | 74 | 1013.0 |
| 20260505150703 | 69 | 208 | 4.3 | 9.6 | 0.00 | 0.72 | 0.72 | 74 | 1013.0 |
| 20260505150603 | 69 | 208 | 4.3 | 9.6 | 0.00 | 0.72 | 0.72 | 74 | 1013.0 |
| 20260505150503 | 69 | 210 | 4.3 | 9.6 | 0.00 | 0.72 | 0.72 | 73 | 1013.0 |
| 20260505150403 | 69 | 211 | 4.3 | 9.6 | 0.00 | 0.72 | 0.72 | 72 | 1013.0 |
| 20260505150303 | 69 | 212 | 4.3 | 9.6 | 0.00 | 0.72 | 0.72 | 72 | 1013.0 |
| 20260505150203 | 69 | 214 | 4.3 | 9.6 | 0.00 | 0.72 | 0.72 | 71 | 1013.0 |
| 20260505140603 | 68 | 230 | 5.2 | 8.7 | 0.00 | 0.72 | 0.72 | 71 | 1013.0 |
| 20260505140503 | 68 | 230 | 5.2 | 8.7 | 0.00 | 0.72 | 0.72 | 71 | 1013.0 |
| 20260505140403 | 68 | 227 | 4.3 | 8.7 | 0.00 | 0.72 | 0.72 | 71 | 1013.0 |
| 20260505140304 | 68 | 227 | 4.3 | 8.7 | 0.00 | 0.72 | 0.72 | 71 | 1013.0 |
| 20260505140203 | 68 | 227 | 4.3 | 8.7 | 0.00 | 0.72 | 0.72 | 71 | 1013.0 |
| 20260505130303 | 68 | 225 | 6.1 | 11.3 | 0.00 | 0.72 | 0.72 | 76 | 1013.3 |
| 20260505130203 | 68 | 224 | 6.1 | 11.3 | 0.00 | 0.72 | 0.72 | 76 | 1013.3 |
| 20260505130103 | 68 | 225 | 6.1 | 11.3 | 0.00 | 0.72 | 0.72 | 76 | 1013.3 |
| 20260505125003 | 68 | 219 | 5.2 | 11.3 | 0.00 | 0.72 | 0.72 | 74 | 1013.4 |
| 20260505124903 | 68 | 217 | 5.2 | 11.3 | 0.00 | 0.72 | 0.72 | 74 | 1013.4 |
| 20260505124803 | 68 | 219 | 6.1 | 11.3 | 0.00 | 0.72 | 0.72 | 74 | 1013.4 |
| 20260505124703 | 68 | 219 | 6.1 | 11.3 | 0.00 | 0.72 | 0.72 | 74 | 1013.3 |
| 20260505124603 | 68 | 219 | 6.1 | 11.3 | 0.00 | 0.72 | 0.72 | 74 | 1013.3 |
| 20260505124503 | 68 | 220 | 6.1 | 11.3 | 0.00 | 0.72 | 0.72 | 74 | 1013.3 |
| 20260505124403 | 68 | 219 | 6.1 | 11.3 | 0.00 | 0.72 | 0.72 | 74 | 1013.3 |
| 20260505124303 | 68 | 219 | 6.1 | 11.3 | 0.00 | 0.72 | 0.72 | 74 | 1013.3 |
| 20260505124203 | 68 | 218 | 6.1 | 13.0 | 0.00 | 0.72 | 0.72 | 75 | 1013.3 |
| 20260505124103 | 68 | 218 | 6.1 | 13.0 | 0.00 | 0.72 | 0.72 | 75 | 1013.3 |
| 20260505124003 | 67 | 217 | 5.2 | 13.0 | 0.00 | 0.72 | 0.72 | 75 | 1013.4 |
| 20260505123903 | 67 | 217 | 5.2 | 13.0 | 0.00 | 0.72 | 0.72 | 75 | 1013.3 |
| 20260505123803 | 67 | 217 | 5.2 | 13.0 | 0.00 | 0.72 | 0.72 | 75 | 1013.3 |
| 20260505123703 | 67 | 215 | 4.3 | 13.0 | 0.00 | 0.72 | 0.72 | 75 | 1013.3 |
| 20260505123603 | 67 | 215 | 4.3 | 13.0 | 0.00 | 0.72 | 0.72 | 76 | 1013.3 |
| 20260505123503 | 67 | 214 | 4.3 | 13.0 | 0.00 | 0.72 | 0.72 | 76 | 1013.3 |
| 20260505123403 | 67 | 215 | 4.3 | 13.0 | 0.00 | 0.72 | 0.72 | 76 | 1013.3 |
| 20260505123303 | 67 | 216 | 4.3 | 13.0 | 0.00 | 0.72 | 0.72 | 75 | 1013.3 |
| 20260505123203 | 67 | 217 | 4.3 | 13.0 | 0.00 | 0.72 | 0.72 | 74 | 1013.4 |
| 20260505123103 | 67 | 218 | 4.3 | 12.2 | 0.00 | 0.72 | 0.72 | 75 | 1013.3 |
| 20260505123003 | 67 | 219 | 4.3 | 12.2 | 0.00 | 0.72 | 0.72 | 75 | 1013.3 |
| 20260505122903 | 68 | 221 | 4.3 | 12.2 | 0.00 | 0.72 | 0.72 | 73 | 1013.3 |
| 20260505122803 | 67 | 218 | 5.2 | 10.4 | 0.00 | 0.72 | 0.72 | 70 | 1013.4 |
| 20260505122703 | 68 | 220 | 5.2 | 12.2 | 0.00 | 0.72 | 0.72 | 71 | 1013.4 |
| 20260505122603 | 67 | 220 | 5.2 | 12.2 | 0.00 | 0.72 | 0.72 | 71 | 1013.3 |
| 20260505122503 | 67 | 220 | 6.1 | 12.2 | 0.00 | 0.72 | 0.72 | 73 | 1013.4 |
| 20260505122403 | 67 | 221 | 6.1 | 12.2 | 0.00 | 0.72 | 0.72 | 75 | 1013.4 |
| 20260505122305 | 67 | 220 | 6.1 | 12.2 | 0.00 | 0.72 | 0.72 | 74 | 1013.4 |
| 20260505122203 | 67 | 220 | 6.1 | 12.2 | 0.00 | 0.72 | 0.72 | 75 | 1013.4 |
| 20260505122103 | 67 | 219 | 6.1 | 12.2 | 0.00 | 0.72 | 0.72 | 76 | 1013.4 |
| 20260505122003 | 67 | 218 | 6.1 | 12.2 | 0.00 | 0.72 | 0.72 | 76 | 1013.4 |
| 20260505121903 | 67 | 217 | 6.1 | 12.2 | 0.00 | 0.72 | 0.72 | 76 | 1013.4 |
| 20260505121804 | 67 | 218 | 6.1 | 13.0 | 0.00 | 0.72 | 0.72 | 76 | 1013.3 |
| 20260505121703 | 67 | 218 | 6.1 | 13.0 | 0.00 | 0.72 | 0.72 | 76 | 1013.3 |
| 20260505121603 | 67 | 220 | 5.2 | 13.0 | 0.00 | 0.72 | 0.72 | 76 | 1013.3 |
| 20260505121503 | 67 | 220 | 5.2 | 13.0 | 0.00 | 0.72 | 0.72 | 75 | 1013.3 |
| 20260505121403 | 67 | 220 | 5.2 | 13.0 | 0.00 | 0.72 | 0.72 | 76 | 1013.3 |
| 20260505121303 | 67 | 219 | 5.2 | 13.0 | 0.00 | 0.72 | 0.72 | 76 | 1013.3 |
| 20260505121203 | 67 | 218 | 5.2 | 13.0 | 0.00 | 0.72 | 0.72 | 77 | 1013.3 |
| 20260505121103 | 67 | 219 | 6.1 | 13.0 | 0.00 | 0.72 | 0.72 | 76 | 1013.3 |
| 20260505121003 | 67 | 221 | 6.1 | 13.0 | 0.00 | 0.72 | 0.72 | 76 | 1013.4 |
| 20260505120903 | 67 | 223 | 6.1 | 13.0 | 0.00 | 0.72 | 0.72 | 76 | 1013.3 |
| 20260505120803 | 67 | 223 | 6.1 | 12.2 | 0.00 | 0.72 | 0.72 | 76 | 1013.3 |
| 20260505120703 | 67 | 223 | 6.1 | 12.2 | 0.00 | 0.72 | 0.72 | 75 | 1013.3 |
| 20260505120603 | 67 | 223 | 6.1 | 12.2 | 0.00 | 0.72 | 0.72 | 75 | 1013.3 |
| 20260505120503 | 67 | 223 | 6.1 | 12.2 | 0.00 | 0.72 | 0.72 | 73 | 1013.3 |
| 20260505120403 | 67 | 224 | 6.1 | 12.2 | 0.00 | 0.72 | 0.72 | 72 | 1013.3 |
| 20260505120303 | 66 | 225 | 6.1 | 12.2 | 0.00 | 0.72 | 0.72 | 74 | 1013.3 |
| 20260505120203 | 66 | 226 | 6.1 | 12.2 | 0.00 | 0.72 | 0.72 | 76 | 1013.3 |
| 20260505120103 | 66 | 226 | 6.1 | 12.2 | 0.00 | 0.72 | 0.72 | 76 | 1013.3 |
| 20260505120004 | 66 | 226 | 5.2 | 12.2 | 0.00 | 0.72 | 0.72 | 76 | 1013.2 |
| 20260505115903 | 67 | 226 | 5.2 | 12.2 | 0.00 | 0.72 | 0.72 | 76 | 1013.2 |
| 20260505115804 | 67 | 225 | 4.3 | 11.3 | 0.00 | 0.72 | 0.72 | 77 | 1013.2 |
| 20260505115703 | 67 | 224 | 4.3 | 11.3 | 0.00 | 0.72 | 0.72 | 77 | 1013.2 |
| 20260505115603 | 67 | 223 | 4.3 | 11.3 | 0.00 | 0.72 | 0.72 | 76 | 1013.2 |
| 20260505115503 | 67 | 222 | 3.5 | 11.3 | 0.00 | 0.72 | 0.72 | 76 | 1013.1 |
| 20260505115403 | 67 | 222 | 3.5 | 10.4 | 0.00 | 0.72 | 0.72 | 76 | 1013.1 |
| 20260505115305 | 67 | 222 | 3.5 | 9.6 | 0.00 | 0.72 | 0.72 | 76 | 1013.2 |
| 20260505115203 | 67 | 222 | 3.5 | 9.6 | 0.00 | 0.72 | 0.72 | 75 | 1013.2 |
| 20260505115103 | 67 | 220 | 3.5 | 9.6 | 0.00 | 0.72 | 0.72 | 75 | 1013.1 |
| 20260505115003 | 67 | 220 | 3.5 | 9.6 | 0.00 | 0.72 | 0.72 | 75 | 1013.2 |
| 20260505114903 | 67 | 219 | 3.5 | 9.6 | 0.00 | 0.72 | 0.72 | 76 | 1013.2 |
| 20260505114803 | 67 | 221 | 4.3 | 9.6 | 0.00 | 0.72 | 0.72 | 76 | 1013.2 |
| 20260505114703 | 67 | 220 | 4.3 | 9.6 | 0.00 | 0.72 | 0.72 | 76 | 1013.2 |
| 20260505114603 | 67 | 220 | 4.3 | 8.7 | 0.00 | 0.72 | 0.72 | 75 | 1013.2 |
| 20260505114503 | 67 | 221 | 4.3 | 9.6 | 0.00 | 0.72 | 0.72 | 75 | 1013.2 |
| 20260505114403 | 67 | 217 | 5.2 | 9.6 | 0.00 | 0.72 | 0.72 | 75 | 1013.2 |
| 20260505114304 | 67 | 216 | 5.2 | 9.6 | 0.00 | 0.72 | 0.72 | 77 | 1013.2 |
| 20260505114203 | 67 | 217 | 5.2 | 9.6 | 0.00 | 0.72 | 0.72 | 77 | 1013.2 |
| 20260505114103 | 67 | 216 | 5.2 | 9.6 | 0.00 | 0.72 | 0.72 | 77 | 1013.2 |
| 20260505114003 | 67 | 216 | 5.2 | 10.4 | 0.00 | 0.72 | 0.72 | 76 | 1013.3 |
| 20260505113903 | 67 | 217 | 5.2 | 10.4 | 0.00 | 0.72 | 0.72 | 76 | 1013.3 |
| 20260505113803 | 67 | 216 | 5.2 | 10.4 | 0.00 | 0.72 | 0.72 | 76 | 1013.3 |
| 20260505113703 | 67 | 217 | 5.2 | 10.4 | 0.00 | 0.72 | 0.72 | 77 | 1013.3 |
| 20260505113603 | 67 | 218 | 5.2 | 10.4 | 0.00 | 0.72 | 0.72 | 77 | 1013.4 |
| 20260505113503 | 67 | 216 | 5.2 | 12.2 | 0.00 | 0.72 | 0.72 | 76 | 1013.4 |
| 20260505113403 | 67 | 218 | 5.2 | 12.2 | 0.00 | 0.72 | 0.72 | 77 | 1013.3 |
| 20260505113303 | 67 | 218 | 5.2 | 12.2 | 0.00 | 0.72 | 0.72 | 76 | 1013.4 |
| 20260505113203 | 67 | 218 | 5.2 | 12.2 | 0.00 | 0.72 | 0.72 | 76 | 1013.4 |
| 20260505113103 | 67 | 218 | 5.2 | 12.2 | 0.00 | 0.72 | 0.72 | 76 | 1013.4 |
| 20260505113003 | 67 | 219 | 5.2 | 12.2 | 0.00 | 0.72 | 0.72 | 76 | 1013.4 |
| 20260505112903 | 67 | 217 | 5.2 | 12.2 | 0.00 | 0.72 | 0.72 | 76 | 1013.4 |
| 20260505112803 | 68 | 217 | 5.2 | 12.2 | 0.00 | 0.72 | 0.72 | 76 | 1013.4 |
| 20260505112703 | 68 | 217 | 5.2 | 12.2 | 0.00 | 0.72 | 0.72 | 76 | 1013.4 |
| 20260505112603 | 68 | 217 | 5.2 | 12.2 | 0.00 | 0.72 | 0.72 | 77 | 1013.4 |
| 20260505112503 | 68 | 217 | 5.2 | 10.4 | 0.00 | 0.72 | 0.72 | 77 | 1013.4 |
| 20260505112403 | 67 | 216 | 5.2 | 10.4 | 0.00 | 0.72 | 0.72 | 77 | 1013.4 |
| 20260505112304 | 67 | 215 | 5.2 | 10.4 | 0.00 | 0.72 | 0.72 | 76 | 1013.4 |
| 20260505112203 | 67 | 214 | 5.2 | 10.4 | 0.00 | 0.72 | 0.72 | 76 | 1013.3 |
| 20260505112103 | 67 | 216 | 5.2 | 10.4 | 0.00 | 0.72 | 0.72 | 76 | 1013.3 |
| 20260505112004 | 67 | 214 | 6.1 | 10.4 | 0.00 | 0.72 | 0.72 | 76 | 1013.3 |
| 20260505111903 | 67 | 212 | 6.1 | 10.4 | 0.00 | 0.72 | 0.72 | 76 | 1013.3 |
| 20260505111803 | 67 | 212 | 6.1 | 10.4 | 0.00 | 0.72 | 0.72 | 75 | 1013.2 |
| 20260505111703 | 67 | 212 | 6.1 | 10.4 | 0.00 | 0.72 | 0.72 | 76 | 1013.2 |
| 20260505111603 | 67 | 212 | 6.1 | 11.3 | 0.00 | 0.72 | 0.72 | 76 | 1013.2 |
| 20260505111503 | 67 | 212 | 6.1 | 11.3 | 0.00 | 0.72 | 0.72 | 77 | 1013.3 |
| 20260505111403 | 67 | 213 | 6.1 | 11.3 | 0.00 | 0.72 | 0.72 | 77 | 1013.3 |
| 20260505111303 | 67 | 213 | 6.1 | 12.2 | 0.00 | 0.72 | 0.72 | 77 | 1013.3 |
| 20260505111203 | 67 | 213 | 5.2 | 12.2 | 0.00 | 0.72 | 0.72 | 77 | 1013.2 |
| 20260505111103 | 67 | 211 | 5.2 | 12.2 | 0.00 | 0.72 | 0.72 | 77 | 1013.2 |
| 20260505111003 | 67 | 212 | 5.2 | 12.2 | 0.00 | 0.72 | 0.72 | 77 | 1013.2 |
| 20260505110903 | 67 | 213 | 5.2 | 12.2 | 0.00 | 0.72 | 0.72 | 77 | 1013.2 |
| 20260505110803 | 67 | 213 | 5.2 | 12.2 | 0.00 | 0.72 | 0.72 | 76 | 1013.2 |
| 20260505110703 | 67 | 213 | 5.2 | 12.2 | 0.00 | 0.72 | 0.72 | 76 | 1013.2 |
| 20260505110603 | 67 | 212 | 4.3 | 12.2 | 0.00 | 0.72 | 0.72 | 76 | 1013.2 |
| 20260505110503 | 67 | 212 | 4.3 | 12.2 | 0.00 | 0.72 | 0.72 | 76 | 1013.2 |
| 20260505110403 | 67 | 211 | 4.3 | 12.2 | 0.00 | 0.72 | 0.72 | 76 | 1013.2 |
| 20260505110303 | 67 | 209 | 4.3 | 10.4 | 0.00 | 0.72 | 0.72 | 76 | 1013.2 |
| 20260505110203 | 67 | 211 | 4.3 | 10.4 | 0.00 | 0.72 | 0.72 | 76 | 1013.2 |
| 20260505102203 | 67 | 207 | 5.2 | 10.4 | 0.00 | 0.72 | 0.72 | 75 | 1013.2 |
| 20260505102103 | 67 | 208 | 5.2 | 10.4 | 0.00 | 0.72 | 0.72 | 76 | 1013.2 |
| 20260505102004 | 67 | 210 | 5.2 | 10.4 | 0.00 | 0.72 | 0.72 | 76 | 1013.1 |
| 20260505101903 | 67 | 211 | 5.2 | 10.4 | 0.00 | 0.72 | 0.72 | 75 | 1013.1 |
| 20260505101803 | 67 | 212 | 5.2 | 10.4 | 0.00 | 0.72 | 0.72 | 76 | 1013.0 |
| 20260505101704 | 67 | 212 | 4.3 | 10.4 | 0.00 | 0.72 | 0.72 | 77 | 1013.0 |
| 20260505101603 | 67 | 214 | 4.3 | 10.4 | 0.00 | 0.72 | 0.72 | 77 | 1013.0 |
| 20260505101503 | 67 | 215 | 4.3 | 9.6 | 0.00 | 0.72 | 0.72 | 77 | 1013.0 |
| 20260505101403 | 67 | 215 | 4.3 | 9.6 | 0.00 | 0.72 | 0.72 | 77 | 1013.0 |
| 20260505101303 | 67 | 215 | 4.3 | 9.6 | 0.00 | 0.72 | 0.72 | 77 | 1013.0 |
| 20260505101203 | 67 | 216 | 3.5 | 9.6 | 0.00 | 0.72 | 0.72 | 77 | 1013.0 |
| 20260505101103 | 67 | 216 | 3.5 | 9.6 | 0.00 | 0.72 | 0.72 | 78 | 1013.0 |
| 20260505101003 | 67 | 216 | 3.5 | 9.6 | 0.00 | 0.72 | 0.72 | 78 | 1013.0 |
| 20260505100903 | 67 | 216 | 3.5 | 9.6 | 0.00 | 0.72 | 0.72 | 78 | 1013.0 |
| 20260505100804 | 67 | 216 | 3.5 | 8.7 | 0.00 | 0.72 | 0.72 | 78 | 1012.9 |
| 20260505100703 | 67 | 215 | 3.5 | 8.7 | 0.00 | 0.72 | 0.72 | 77 | 1012.9 |
| 20260505100603 | 67 | 215 | 3.5 | 7.8 | 0.00 | 0.72 | 0.72 | 79 | 1012.9 |
| 20260505100503 | 67 | 214 | 3.5 | 7.8 | 0.00 | 0.72 | 0.72 | 79 | 1012.9 |
| 20260505100403 | 67 | 215 | 3.5 | 9.6 | 0.00 | 0.72 | 0.72 | 80 | 1012.9 |
| 20260505100303 | 66 | 216 | 3.5 | 9.6 | 0.00 | 0.72 | 0.72 | 81 | 1012.9 |
| 20260505100203 | 66 | 216 | 3.5 | 9.6 | 0.00 | 0.72 | 0.72 | 81 | 1012.9 |
| 20260505100003 | 66 | 217 | 3.5 | 9.6 | 0.00 | 0.72 | 0.72 | 80 | 1012.8 |
| 20260505095903 | 66 | 218 | 3.5 | 9.6 | 0.00 | 0.72 | 0.72 | 82 | 1012.8 |
| 20260505095803 | 66 | 217 | 3.5 | 9.6 | 0.00 | 0.72 | 0.72 | 82 | 1012.9 |
| 20260505095703 | 66 | 219 | 3.5 | 9.6 | 0.00 | 0.72 | 0.72 | 81 | 1012.9 |
| 20260505095603 | 66 | 220 | 3.5 | 9.6 | 0.00 | 0.72 | 0.72 | 82 | 1012.9 |
| 20260505095503 | 66 | 220 | 3.5 | 9.6 | 0.00 | 0.72 | 0.72 | 82 | 1012.9 |
| 20260505095403 | 66 | 221 | 3.5 | 9.6 | 0.00 | 0.72 | 0.72 | 83 | 1012.9 |
| 20260505095305 | 65 | 222 | 3.5 | 9.6 | 0.00 | 0.72 | 0.72 | 81 | 1012.9 |
| 20260505095203 | 65 | 221 | 4.3 | 9.6 | 0.00 | 0.72 | 0.72 | 81 | 1012.9 |
| 20260505095103 | 65 | 222 | 4.3 | 9.6 | 0.00 | 0.72 | 0.72 | 82 | 1012.8 |
| 20260505095003 | 65 | 221 | 4.3 | 10.4 | 0.00 | 0.72 | 0.72 | 83 | 1012.8 |
| 20260505094903 | 65 | 220 | 4.3 | 10.4 | 0.00 | 0.72 | 0.72 | 83 | 1012.7 |
| 20260505094803 | 65 | 220 | 4.3 | 10.4 | 0.00 | 0.72 | 0.72 | 83 | 1012.7 |
| 20260505094703 | 65 | 218 | 4.3 | 10.4 | 0.00 | 0.72 | 0.72 | 82 | 1012.7 |
| 20260505094603 | 65 | 216 | 4.3 | 10.4 | 0.00 | 0.72 | 0.72 | 82 | 1012.7 |
| 20260505094503 | 65 | 216 | 3.5 | 10.4 | 0.00 | 0.72 | 0.72 | 83 | 1012.7 |
| 20260505094403 | 65 | 215 | 3.5 | 10.4 | 0.00 | 0.72 | 0.72 | 83 | 1012.7 |
| 20260505094303 | 65 | 214 | 3.5 | 10.4 | 0.00 | 0.72 | 0.72 | 83 | 1012.7 |
| 20260505094203 | 65 | 213 | 2.6 | 10.4 | 0.00 | 0.72 | 0.72 | 83 | 1012.8 |
| 20260505094103 | 65 | 214 | 2.6 | 11.3 | 0.00 | 0.72 | 0.72 | 83 | 1012.8 |
| 20260505094003 | 65 | 215 | 2.6 | 11.3 | 0.00 | 0.72 | 0.72 | 83 | 1012.7 |
| 20260505093903 | 65 | 215 | 1.7 | 11.3 | 0.00 | 0.72 | 0.72 | 83 | 1012.8 |
| 20260505093803 | 65 | 214 | 1.7 | 11.3 | 0.00 | 0.72 | 0.72 | 84 | 1012.8 |
| 20260505093703 | 65 | 215 | 1.7 | 11.3 | 0.00 | 0.72 | 0.72 | 84 | 1012.8 |
| 20260505093603 | 65 | 217 | 1.7 | 11.3 | 0.00 | 0.72 | 0.72 | 85 | 1012.8 |
| 20260505093503 | 65 | 218 | 1.7 | 11.3 | 0.00 | 0.72 | 0.72 | 85 | 1012.8 |
| 20260505093403 | 65 | 220 | 0.9 | 11.3 | 0.00 | 0.72 | 0.72 | 85 | 1012.8 |
| 20260505093303 | 65 | 222 | 0.9 | 11.3 | 0.00 | 0.72 | 0.72 | 85 | 1012.8 |
| 20260505093203 | 65 | 227 | 0.9 | 11.3 | 0.00 | 0.72 | 0.72 | 85 | 1012.8 |
| 20260505093103 | 64 | 228 | 0.9 | 7.8 | 0.00 | 0.72 | 0.72 | 85 | 1012.7 |
| 20260505093003 | 64 | 228 | 0.9 | 6.1 | 0.00 | 0.72 | 0.72 | 82 | 1012.7 |
| 20260505092903 | 64 | 229 | 0.9 | 6.1 | 0.00 | 0.72 | 0.72 | 84 | 1012.8 |
| 20260505092803 | 64 | 229 | 0.9 | 6.1 | 0.00 | 0.72 | 0.72 | 83 | 1012.7 |
| 20260505092703 | 64 | 231 | 0.9 | 6.1 | 0.00 | 0.72 | 0.72 | 82 | 1012.8 |
| 20260505092603 | 64 | 239 | 0.9 | 6.1 | 0.00 | 0.72 | 0.72 | 83 | 1012.7 |
| 20260505092503 | 64 | 280 | 0.9 | 4.3 | 0.00 | 0.72 | 0.72 | 83 | 1012.7 |
| 20260505092403 | 64 | 342 | 0.9 | 3.5 | 0.00 | 0.72 | 0.72 | 82 | 1012.7 |
| 20260505092305 | 63 | 7 | 0.9 | 3.5 | 0.00 | 0.72 | 0.72 | 82 | 1012.7 |
| 20260505092203 | 63 | 18 | 0.9 | 3.5 | 0.00 | 0.72 | 0.72 | 81 | 1012.7 |
| 20260505092103 | 63 | 18 | 0.9 | 3.5 | 0.00 | 0.72 | 0.72 | 82 | 1012.6 |
| 20260505092003 | 63 | 18 | 0.0 | 3.5 | 0.00 | 0.72 | 0.72 | 81 | 1012.6 |
| 20260505091903 | 63 | 18 | 0.0 | 3.5 | 0.00 | 0.72 | 0.72 | 81 | 1012.7 |
| 20260505091803 | 63 | 18 | 0.0 | 3.5 | 0.00 | 0.72 | 0.72 | 82 | 1012.6 |
| 20260505091703 | 63 | 18 | 0.0 | 3.5 | 0.00 | 0.72 | 0.72 | 82 | 1012.6 |
| 20260505091603 | 63 | 18 | 0.0 | 3.5 | 0.00 | 0.72 | 0.72 | 81 | 1012.6 |
| 20260505091503 | 63 | 0 | 0.0 | 3.5 | 0.00 | 0.72 | 0.72 | 82 | 1012.6 |
| 20260505091403 | 63 | 0 | 0.0 | 3.5 | 0.00 | 0.72 | 0.72 | 82 | 1012.6 |
| 20260505091304 | 63 | 0 | 0.0 | 1.7 | 0.00 | 0.72 | 0.72 | 83 | 1012.7 |
| 20260505091203 | 63 | 0 | 0.0 | 1.7 | 0.00 | 0.72 | 0.72 | 82 | 1012.6 |
| 20260505091103 | 63 | 0 | 0.0 | 1.7 | 0.00 | 0.72 | 0.72 | 82 | 1012.6 |
| 20260505091003 | 62 | 0 | 0.0 | 1.7 | 0.00 | 0.72 | 0.72 | 82 | 1012.6 |
| 20260505090903 | 62 | 0 | 0.0 | 1.7 | 0.00 | 0.72 | 0.72 | 83 | 1012.7 |
| 20260505090803 | 62 | 0 | 0.0 | 1.7 | 0.00 | 0.72 | 0.72 | 83 | 1012.7 |
| 20260505090703 | 62 | 0 | 0.0 | 1.7 | 0.00 | 0.72 | 0.72 | 83 | 1012.7 |
| 20260505090603 | 62 | 17 | 0.0 | 1.7 | 0.00 | 0.72 | 0.72 | 82 | 1012.6 |
| 20260505090504 | 62 | 17 | 0.0 | 1.7 | 0.00 | 0.72 | 0.72 | 82 | 1012.6 |
| 20260505090403 | 62 | 17 | 0.0 | 1.7 | 0.00 | 0.72 | 0.72 | 83 | 1012.6 |
| 20260505090303 | 62 | 17 | 0.0 | 1.7 | 0.00 | 0.72 | 0.72 | 83 | 1012.6 |
| 20260505090203 | 62 | 17 | 0.9 | 1.7 | 0.00 | 0.72 | 0.72 | 82 | 1012.6 |
| 20260505090104 | 62 | 17 | 0.9 | 1.7 | 0.00 | 0.72 | 0.72 | 82 | 1012.6 |
| 20260505090004 | 62 | 17 | 0.9 | 1.7 | 0.00 | 0.72 | 0.72 | 83 | 1012.6 |
| 20260505085903 | 62 | 17 | 0.9 | 1.7 | 0.00 | 0.72 | 0.72 | 82 | 1012.6 |
| 20260505085803 | 62 | 17 | 0.9 | 3.5 | 0.00 | 0.72 | 0.72 | 81 | 1012.6 |
| 20260505085703 | 62 | 17 | 1.7 | 3.5 | 0.00 | 0.72 | 0.72 | 81 | 1012.6 |
| 20260505085603 | 62 | 17 | 1.7 | 4.3 | 0.00 | 0.72 | 0.72 | 81 | 1012.6 |
| 20260505085503 | 62 | 11 | 1.7 | 5.2 | 0.00 | 0.72 | 0.72 | 82 | 1012.6 |
| 20260505085403 | 62 | 6 | 1.7 | 5.2 | 0.00 | 0.72 | 0.72 | 82 | 1012.5 |
| 20260505085304 | 62 | 2 | 1.7 | 7.8 | 0.00 | 0.72 | 0.72 | 81 | 1012.6 |
| 20260505085203 | 61 | 3 | 1.7 | 7.8 | 0.00 | 0.72 | 0.72 | 81 | 1012.6 |
| 20260505085103 | 61 | 8 | 1.7 | 7.8 | 0.00 | 0.72 | 0.72 | 80 | 1012.6 |
| 20260505085003 | 61 | 8 | 1.7 | 7.8 | 0.00 | 0.72 | 0.72 | 80 | 1012.5 |
| 20260505084903 | 61 | 6 | 1.7 | 7.8 | 0.00 | 0.72 | 0.72 | 80 | 1012.5 |
| 20260505084803 | 61 | 4 | 1.7 | 7.8 | 0.00 | 0.72 | 0.72 | 79 | 1012.5 |
| 20260505084703 | 61 | 3 | 0.9 | 7.8 | 0.00 | 0.72 | 0.72 | 80 | 1012.5 |
| 20260505084603 | 61 | 2 | 0.9 | 7.8 | 0.00 | 0.72 | 0.72 | 79 | 1012.5 |
| 20260505084503 | 61 | 1 | 0.9 | 7.8 | 0.00 | 0.72 | 0.72 | 80 | 1012.5 |
| 20260505084403 | 61 | 3 | 0.9 | 7.8 | 0.00 | 0.72 | 0.72 | 80 | 1012.5 |
| 20260505084303 | 61 | 6 | 0.9 | 7.8 | 0.00 | 0.72 | 0.72 | 82 | 1012.5 |
| 20260505084203 | 61 | 5 | 0.9 | 5.2 | 0.00 | 0.72 | 0.72 | 81 | 1012.5 |
| 20260505084103 | 61 | 355 | 0.9 | 5.2 | 0.00 | 0.72 | 0.72 | 82 | 1012.5 |
| 20260505084003 | 60 | 354 | 0.9 | 5.2 | 0.00 | 0.72 | 0.72 | 81 | 1012.5 |
| 20260505083903 | 60 | 354 | 0.9 | 4.3 | 0.00 | 0.72 | 0.72 | 83 | 1012.5 |
| 20260505083803 | 60 | 356 | 0.9 | 4.3 | 0.00 | 0.72 | 0.72 | 82 | 1012.5 |
| 20260505083703 | 60 | 354 | 0.9 | 4.3 | 0.00 | 0.72 | 0.72 | 83 | 1012.5 |
| 20260505083603 | 60 | 1 | 0.9 | 10.4 | 0.00 | 0.72 | 0.72 | 83 | 1012.5 |
| 20260505083503 | 60 | 360 | 0.9 | 10.4 | 0.00 | 0.72 | 0.72 | 83 | 1012.5 |
| 20260505083403 | 60 | 359 | 0.9 | 10.4 | 0.00 | 0.72 | 0.72 | 83 | 1012.5 |
| 20260505083305 | 60 | 358 | 1.7 | 10.4 | 0.00 | 0.72 | 0.72 | 82 | 1012.5 |
| 20260505083203 | 60 | 358 | 1.7 | 10.4 | 0.00 | 0.72 | 0.72 | 82 | 1012.5 |
| 20260505083103 | 60 | 356 | 1.7 | 10.4 | 0.00 | 0.72 | 0.72 | 82 | 1012.5 |
| 20260505083003 | 60 | 355 | 1.7 | 10.4 | 0.00 | 0.72 | 0.72 | 82 | 1012.5 |
| 20260505082904 | 60 | 354 | 1.7 | 10.4 | 0.00 | 0.72 | 0.72 | 82 | 1012.5 |
| 20260505082803 | 60 | 353 | 1.7 | 10.4 | 0.00 | 0.72 | 0.72 | 82 | 1012.5 |
| 20260505082703 | 60 | 353 | 0.9 | 10.4 | 0.00 | 0.72 | 0.72 | 81 | 1012.5 |
| 20260505082603 | 60 | 347 | 0.9 | 7.0 | 0.00 | 0.72 | 0.72 | 82 | 1012.5 |
| 20260505082503 | 60 | 347 | 0.9 | 7.0 | 0.00 | 0.72 | 0.72 | 82 | 1012.5 |
| 20260505082403 | 60 | 352 | 0.9 | 7.0 | 0.00 | 0.72 | 0.72 | 83 | 1012.5 |
| 20260505082304 | 60 | 4 | 0.9 | 7.0 | 0.00 | 0.72 | 0.72 | 82 | 1012.5 |
| 20260505082203 | 60 | 4 | 0.9 | 8.7 | 0.00 | 0.72 | 0.72 | 82 | 1012.5 |
| 20260505082103 | 60 | 6 | 0.9 | 8.7 | 0.00 | 0.72 | 0.72 | 83 | 1012.5 |
| 20260505082003 | 60 | 9 | 0.9 | 8.7 | 0.00 | 0.72 | 0.72 | 83 | 1012.5 |
| 20260505081903 | 59 | 11 | 0.9 | 8.7 | 0.00 | 0.72 | 0.72 | 83 | 1012.5 |
| 20260505081803 | 59 | 11 | 0.9 | 8.7 | 0.00 | 0.72 | 0.72 | 83 | 1012.4 |
| 20260505081703 | 59 | 10 | 0.0 | 8.7 | 0.00 | 0.72 | 0.72 | 83 | 1012.5 |
| 20260505081603 | 59 | 14 | 0.0 | 8.7 | 0.00 | 0.72 | 0.72 | 83 | 1012.4 |
| 20260505081503 | 59 | 13 | 0.0 | 8.7 | 0.00 | 0.72 | 0.72 | 83 | 1012.5 |
| 20260505081403 | 59 | 10 | 0.0 | 8.7 | 0.00 | 0.72 | 0.72 | 83 | 1012.5 |
| 20260505081304 | 59 | 359 | 0.0 | 8.7 | 0.00 | 0.72 | 0.72 | 85 | 1012.4 |
| 20260505081203 | 59 | 355 | 0.0 | 3.5 | 0.00 | 0.72 | 0.72 | 85 | 1012.4 |
| 20260505081103 | 59 | 355 | 0.0 | 3.5 | 0.00 | 0.72 | 0.72 | 85 | 1012.4 |
| 20260505081003 | 59 | 355 | 0.0 | 3.5 | 0.00 | 0.72 | 0.72 | 85 | 1012.4 |
| 20260505080903 | 59 | 353 | 0.0 | 3.5 | 0.00 | 0.72 | 0.72 | 86 | 1012.4 |
| 20260505080803 | 59 | 353 | 0.0 | 3.5 | 0.00 | 0.72 | 0.72 | 86 | 1012.4 |
| 20260505080703 | 59 | 5 | 0.0 | 3.5 | 0.00 | 0.72 | 0.72 | 86 | 1012.4 |
| 20260505080604 | 59 | 13 | 0.0 | 3.5 | 0.00 | 0.72 | 0.72 | 85 | 1012.4 |
| 20260505080503 | 59 | 13 | 0.0 | 3.5 | 0.00 | 0.72 | 0.72 | 86 | 1012.4 |
| 20260505080403 | 59 | 14 | 0.0 | 3.5 | 0.00 | 0.72 | 0.72 | 86 | 1012.5 |
| 20260505080303 | 59 | 19 | 0.0 | 3.5 | 0.01 | 0.72 | 0.72 | 86 | 1012.4 |
| 20260505080203 | 59 | 44 | 0.0 | 4.3 | 0.01 | 0.72 | 0.72 | 86 | 1012.5 |
| 20260505080103 | 59 | 40 | 0.0 | 4.3 | 0.01 | 0.72 | 0.72 | 86 | 1012.6 |
| 20260505080003 | 59 | 40 | 0.0 | 4.3 | 0.01 | 0.72 | 0.72 | 85 | 1012.6 |
| 20260505075903 | 59 | 48 | 0.0 | 4.3 | 0.01 | 0.72 | 0.72 | 86 | 1012.6 |
| 20260505075803 | 59 | 54 | 0.0 | 4.3 | 0.01 | 0.72 | 0.72 | 86 | 1012.6 |
| 20260505075703 | 59 | 0 | 0.0 | 4.3 | 0.01 | 0.72 | 0.72 | 87 | 1012.6 |
| 20260505075603 | 59 | 0 | 0.0 | 4.3 | 0.01 | 0.72 | 0.72 | 87 | 1012.6 |
| 20260505075503 | 59 | 0 | 0.0 | 4.3 | 0.01 | 0.72 | 0.72 | 87 | 1012.6 |
| 20260505075403 | 59 | 0 | 0.0 | 4.3 | 0.01 | 0.72 | 0.72 | 87 | 1012.6 |
| 20260505075304 | 59 | 0 | 0.0 | 4.3 | 0.01 | 0.72 | 0.72 | 87 | 1012.6 |
| 20260505075203 | 59 | 0 | 0.0 | 2.6 | 0.01 | 0.72 | 0.72 | 88 | 1012.6 |
| 20260505075103 | 59 | 0 | 0.0 | 1.7 | 0.01 | 0.72 | 0.72 | 88 | 1012.6 |
| 20260505075003 | 59 | 0 | 0.0 | 1.7 | 0.01 | 0.72 | 0.72 | 88 | 1012.7 |
| 20260505074903 | 59 | 0 | 0.0 | 0.0 | 0.01 | 0.72 | 0.72 | 88 | 1012.7 |
| 20260505074803 | 59 | 0 | 0.0 | 0.0 | 0.01 | 0.72 | 0.72 | 88 | 1012.7 |
| 20260505074703 | 59 | 0 | 0.0 | 0.0 | 0.01 | 0.72 | 0.72 | 89 | 1012.7 |
| 20260505074603 | 59 | 0 | 0.0 | 0.0 | 0.01 | 0.72 | 0.72 | 89 | 1012.7 |
| 20260505074503 | 59 | 0 | 0.0 | 0.0 | 0.01 | 0.72 | 0.72 | 89 | 1012.7 |
| 20260505074403 | 59 | 0 | 0.0 | 0.0 | 0.01 | 0.72 | 0.72 | 89 | 1012.7 |
| 20260505074303 | 59 | 0 | 0.0 | 0.0 | 0.01 | 0.72 | 0.72 | 89 | 1012.6 |
| 20260505074203 | 59 | 0 | 0.0 | 0.0 | 0.01 | 0.72 | 0.72 | 88 | 1012.6 |
| 20260505074103 | 59 | 0 | 0.0 | 0.0 | 0.01 | 0.72 | 0.72 | 88 | 1012.6 |
| 20260505074003 | 59 | 0 | 0.0 | 0.0 | 0.01 | 0.72 | 0.72 | 88 | 1012.6 |
| 20260505073903 | 59 | 0 | 0.0 | 0.0 | 0.01 | 0.72 | 0.72 | 88 | 1012.6 |
| 20260505073803 | 59 | 0 | 0.0 | 0.0 | 0.01 | 0.72 | 0.72 | 88 | 1012.6 |
| 20260505073703 | 59 | 0 | 0.0 | 0.0 | 0.02 | 0.72 | 0.72 | 88 | 1012.5 |
| 20260505073603 | 59 | 0 | 0.0 | 0.0 | 0.02 | 0.72 | 0.72 | 88 | 1012.6 |
| 20260505073503 | 59 | 0 | 0.0 | 0.0 | 0.02 | 0.72 | 0.72 | 88 | 1012.6 |
| 20260505073404 | 59 | 0 | 0.0 | 0.0 | 0.02 | 0.72 | 0.72 | 88 | 1012.6 |
| 20260505073303 | 59 | 0 | 0.9 | 0.0 | 0.02 | 0.72 | 0.72 | 88 | 1012.6 |
| 20260505073204 | 59 | 13 | 0.9 | 1.7 | 0.02 | 0.72 | 0.72 | 88 | 1012.6 |
| 20260505073103 | 59 | 29 | 0.9 | 5.2 | 0.03 | 0.72 | 0.72 | 88 | 1012.6 |
| 20260505073003 | 59 | 29 | 0.9 | 5.2 | 0.03 | 0.72 | 0.72 | 88 | 1012.5 |
| 20260505072903 | 59 | 29 | 0.9 | 5.2 | 0.03 | 0.72 | 0.72 | 88 | 1012.5 |
| 20260505072805 | 59 | 29 | 0.9 | 5.2 | 0.03 | 0.72 | 0.72 | 88 | 1012.5 |
| 20260505072703 | 59 | 28 | 0.9 | 5.2 | 0.03 | 0.72 | 0.72 | 88 | 1012.5 |
| 20260505072603 | 59 | 25 | 0.9 | 5.2 | 0.03 | 0.72 | 0.72 | 88 | 1012.5 |
| 20260505072503 | 59 | 25 | 0.9 | 5.2 | 0.03 | 0.72 | 0.72 | 88 | 1012.5 |
| 20260505072403 | 59 | 25 | 0.9 | 5.2 | 0.03 | 0.72 | 0.72 | 88 | 1012.6 |
| 20260505072305 | 59 | 25 | 0.0 | 5.2 | 0.03 | 0.72 | 0.72 | 88 | 1012.6 |
| 20260505072203 | 59 | 25 | 0.0 | 5.2 | 0.03 | 0.72 | 0.72 | 88 | 1012.6 |
| 20260505072103 | 59 | 22 | 0.0 | 4.3 | 0.03 | 0.72 | 0.72 | 88 | 1012.5 |
| 20260505072003 | 59 | 22 | 0.0 | 4.3 | 0.03 | 0.72 | 0.72 | 88 | 1012.5 |
| 20260505071903 | 59 | 21 | 0.0 | 4.3 | 0.03 | 0.72 | 0.72 | 88 | 1012.5 |
| 20260505071805 | 59 | 0 | 0.0 | 4.3 | 0.03 | 0.72 | 0.72 | 88 | 1012.5 |
| 20260505071703 | 59 | 0 | 0.0 | 4.3 | 0.03 | 0.72 | 0.72 | 89 | 1012.5 |
| 20260505071603 | 59 | 0 | 0.0 | 0.0 | 0.03 | 0.72 | 0.72 | 89 | 1012.4 |
| 20260505071503 | 59 | 0 | 0.0 | 0.0 | 0.03 | 0.72 | 0.72 | 89 | 1012.5 |
| 20260505071403 | 59 | 0 | 0.0 | 0.0 | 0.03 | 0.72 | 0.72 | 89 | 1012.4 |
| 20260505071303 | 59 | 0 | 0.0 | 0.0 | 0.03 | 0.72 | 0.72 | 89 | 1012.4 |
| 20260505071203 | 59 | 0 | 0.0 | 0.0 | 0.03 | 0.72 | 0.72 | 89 | 1012.4 |
| 20260505071103 | 59 | 0 | 0.0 | 0.0 | 0.03 | 0.72 | 0.72 | 89 | 1012.5 |
| 20260505071003 | 59 | 0 | 0.0 | 0.0 | 0.03 | 0.72 | 0.72 | 89 | 1012.4 |
| 20260505070903 | 59 | 0 | 0.0 | 0.0 | 0.03 | 0.72 | 0.72 | 89 | 1012.4 |
| 20260505070803 | 59 | 0 | 0.0 | 0.0 | 0.03 | 0.72 | 0.72 | 89 | 1012.4 |
| 20260505070703 | 59 | 0 | 0.0 | 0.0 | 0.03 | 0.72 | 0.72 | 89 | 1012.4 |
| 20260505070603 | 59 | 0 | 0.0 | 0.0 | 0.03 | 0.72 | 0.72 | 88 | 1012.4 |
| 20260505070503 | 59 | 0 | 0.0 | 0.0 | 0.03 | 0.72 | 0.72 | 88 | 1012.4 |
| 20260505070403 | 59 | 0 | 0.0 | 0.0 | 0.03 | 0.72 | 0.72 | 88 | 1012.4 |
| 20260505070303 | 59 | 0 | 0.0 | 0.0 | 0.02 | 0.71 | 0.71 | 88 | 1012.4 |
| 20260505070203 | 59 | 0 | 0.0 | 0.0 | 0.02 | 0.71 | 0.71 | 88 | 1012.5 |
| 20260505070004 | 59 | 0 | 0.0 | 0.0 | 0.02 | 0.71 | 0.71 | 87 | 1012.4 |
| 20260505065903 | 59 | 0 | 0.0 | 0.0 | 0.02 | 0.71 | 0.71 | 87 | 1012.4 |
| 20260505065803 | 59 | 0 | 0.0 | 0.0 | 0.02 | 0.71 | 0.71 | 87 | 1012.5 |
| 20260505065703 | 59 | 0 | 0.0 | 0.0 | 0.02 | 0.71 | 0.71 | 87 | 1012.4 |
| 20260505065603 | 59 | 0 | 0.0 | 0.0 | 0.02 | 0.71 | 0.71 | 87 | 1012.5 |
| 20260505065503 | 59 | 0 | 0.0 | 0.0 | 0.02 | 0.71 | 0.71 | 87 | 1012.4 |
| 20260505065403 | 59 | 0 | 0.0 | 0.0 | 0.03 | 0.71 | 0.71 | 87 | 1012.4 |
| 20260505065304 | 59 | 0 | 0.0 | 0.0 | 0.03 | 0.71 | 0.71 | 87 | 1012.4 |
| 20260505065203 | 59 | 0 | 0.0 | 0.0 | 0.03 | 0.71 | 0.71 | 87 | 1012.3 |
| 20260505065103 | 59 | 0 | 0.0 | 0.0 | 0.03 | 0.71 | 0.71 | 87 | 1012.3 |
| 20260505065003 | 59 | 0 | 0.0 | 0.0 | 0.03 | 0.71 | 0.71 | 87 | 1012.3 |
| 20260505064903 | 59 | 0 | 0.0 | 0.0 | 0.03 | 0.71 | 0.71 | 87 | 1012.2 |
| 20260505064803 | 59 | 0 | 0.0 | 0.0 | 0.04 | 0.71 | 0.71 | 87 | 1012.2 |
| 20260505064703 | 59 | 0 | 0.0 | 0.0 | 0.04 | 0.71 | 0.71 | 87 | 1012.3 |
| 20260505064603 | 59 | 0 | 0.0 | 0.0 | 0.04 | 0.71 | 0.71 | 87 | 1012.3 |
| 20260505064506 | 59 | 0 | 0.0 | 0.0 | 0.04 | 0.71 | 0.71 | 88 | 1012.2 |
| 20260505064403 | 59 | 0 | 0.0 | 0.0 | 0.05 | 0.71 | 0.71 | 87 | 1012.2 |
| 20260505064303 | 59 | 9 | 0.0 | 1.7 | 0.05 | 0.71 | 0.71 | 87 | 1012.2 |
| 20260505064203 | 59 | 9 | 0.0 | 2.6 | 0.06 | 0.71 | 0.71 | 87 | 1012.2 |
| 20260505064103 | 59 | 9 | 0.0 | 2.6 | 0.06 | 0.71 | 0.71 | 87 | 1012.1 |
| 20260505064003 | 60 | 9 | 0.0 | 2.6 | 0.06 | 0.71 | 0.71 | 87 | 1012.1 |
| 20260505063903 | 60 | 9 | 0.0 | 2.6 | 0.06 | 0.71 | 0.71 | 87 | 1012.1 |
| 20260505063803 | 60 | 9 | 0.9 | 2.6 | 0.07 | 0.71 | 0.71 | 87 | 1012.1 |
| 20260505063704 | 60 | 9 | 0.9 | 2.6 | 0.06 | 0.70 | 0.70 | 87 | 1012.1 |
| 20260505063603 | 60 | 2 | 0.9 | 3.5 | 0.07 | 0.70 | 0.70 | 87 | 1012.1 |
| 20260505063503 | 60 | 353 | 0.9 | 3.5 | 0.08 | 0.70 | 0.70 | 87 | 1012.1 |
| 20260505063403 | 60 | 346 | 0.9 | 3.5 | 0.08 | 0.70 | 0.70 | 87 | 1012.1 |
| 20260505063303 | 60 | 343 | 0.9 | 3.5 | 0.08 | 0.69 | 0.69 | 87 | 1012.1 |
| 20260505063203 | 60 | 336 | 0.9 | 3.5 | 0.09 | 0.69 | 0.69 | 86 | 1012.1 |
| 20260505063103 | 60 | 336 | 0.9 | 3.5 | 0.08 | 0.69 | 0.69 | 86 | 1012.1 |
| 20260505063003 | 60 | 336 | 0.9 | 3.5 | 0.09 | 0.69 | 0.69 | 86 | 1012.1 |
| 20260505062903 | 60 | 336 | 0.9 | 3.5 | 0.09 | 0.69 | 0.69 | 86 | 1012.0 |
| 20260505062803 | 60 | 329 | 0.9 | 3.5 | 0.10 | 0.69 | 0.69 | 85 | 1012.0 |
| 20260505062703 | 60 | 323 | 0.9 | 3.5 | 0.10 | 0.69 | 0.69 | 85 | 1012.0 |
| 20260505062603 | 60 | 315 | 0.9 | 3.5 | 0.11 | 0.69 | 0.69 | 85 | 1011.9 |
| 20260505062503 | 60 | 316 | 0.9 | 3.5 | 0.11 | 0.69 | 0.69 | 86 | 1011.9 |
| 20260505062403 | 60 | 316 | 0.9 | 3.5 | 0.12 | 0.69 | 0.69 | 86 | 1011.8 |
| 20260505062304 | 59 | 316 | 0.9 | 3.5 | 0.12 | 0.69 | 0.69 | 86 | 1011.7 |
| 20260505062203 | 59 | 316 | 0.9 | 3.5 | 0.13 | 0.69 | 0.69 | 86 | 1011.7 |
| 20260505062103 | 59 | 316 | 0.9 | 3.5 | 0.13 | 0.69 | 0.69 | 86 | 1011.6 |
| 20260505062003 | 59 | 316 | 0.9 | 4.3 | 0.13 | 0.69 | 0.69 | 86 | 1011.5 |
| 20260505061903 | 59 | 314 | 0.9 | 4.3 | 0.14 | 0.69 | 0.69 | 86 | 1011.4 |
| 20260505061803 | 59 | 314 | 0.9 | 4.3 | 0.15 | 0.69 | 0.69 | 86 | 1011.4 |
| 20260505061703 | 59 | 320 | 0.9 | 4.3 | 0.15 | 0.69 | 0.69 | 87 | 1011.4 |
| 20260505061603 | 59 | 322 | 0.9 | 4.3 | 0.16 | 0.69 | 0.69 | 87 | 1011.4 |
| 20260505061503 | 59 | 323 | 0.9 | 4.3 | 0.17 | 0.69 | 0.69 | 87 | 1011.4 |
| 20260505061403 | 59 | 324 | 0.9 | 4.3 | 0.17 | 0.69 | 0.69 | 86 | 1011.4 |
| 20260505061303 | 59 | 324 | 0.9 | 4.3 | 0.17 | 0.69 | 0.69 | 86 | 1011.4 |
| 20260505061203 | 59 | 326 | 0.9 | 4.3 | 0.17 | 0.69 | 0.69 | 86 | 1011.3 |
| 20260505061103 | 59 | 337 | 0.9 | 4.3 | 0.18 | 0.69 | 0.69 | 86 | 1011.4 |
| 20260505061003 | 59 | 352 | 0.9 | 3.5 | 0.19 | 0.69 | 0.69 | 86 | 1011.5 |
| 20260505060903 | 59 | 3 | 0.9 | 3.5 | 0.19 | 0.69 | 0.69 | 86 | 1011.4 |
| 20260505060803 | 59 | 8 | 0.9 | 3.5 | 0.19 | 0.69 | 0.69 | 86 | 1011.4 |
| 20260505060703 | 59 | 18 | 0.0 | 2.6 | 0.20 | 0.69 | 0.69 | 87 | 1011.3 |
| 20260505060603 | 59 | 18 | 0.0 | 2.6 | 0.20 | 0.69 | 0.69 | 87 | 1011.4 |
| 20260505060503 | 59 | 18 | 0.0 | 2.6 | 0.20 | 0.69 | 0.69 | 86 | 1011.4 |
| 20260505060403 | 59 | 18 | 0.0 | 2.6 | 0.20 | 0.69 | 0.69 | 86 | 1011.4 |
| 20260505060303 | 59 | 18 | 0.0 | 2.6 | 0.21 | 0.69 | 0.69 | 86 | 1011.3 |
| 20260505060203 | 59 | 0 | 0.0 | 2.6 | 0.21 | 0.69 | 0.69 | 86 | 1011.3 |
| 20260505060103 | 59 | 0 | 0.0 | 2.6 | 0.22 | 0.69 | 0.69 | 86 | 1011.4 |
| 20260505060003 | 59 | 0 | 0.0 | 1.7 | 0.22 | 0.69 | 0.69 | 87 | 1011.4 |
| 20260505055903 | 59 | 19 | 0.0 | 1.7 | 0.23 | 0.69 | 0.69 | 87 | 1011.3 |
| 20260505055803 | 59 | 19 | 0.0 | 1.7 | 0.23 | 0.69 | 0.69 | 87 | 1011.4 |
| 20260505055704 | 59 | 15 | 0.0 | 1.7 | 0.24 | 0.69 | 0.69 | 87 | 1011.4 |
| 20260505055603 | 60 | 15 | 0.0 | 1.7 | 0.24 | 0.69 | 0.69 | 87 | 1011.4 |
| 20260505055503 | 60 | 15 | 0.9 | 1.7 | 0.24 | 0.69 | 0.69 | 87 | 1011.4 |
| 20260505055403 | 60 | 340 | 0.9 | 3.5 | 0.24 | 0.68 | 0.68 | 87 | 1011.3 |
| 20260505055304 | 60 | 320 | 0.9 | 3.5 | 0.24 | 0.68 | 0.68 | 87 | 1011.4 |
| 20260505055203 | 60 | 320 | 0.9 | 3.5 | 0.24 | 0.68 | 0.68 | 87 | 1011.4 |
| 20260505055103 | 60 | 319 | 0.9 | 3.5 | 0.24 | 0.68 | 0.68 | 87 | 1011.4 |
| 20260505055003 | 60 | 311 | 1.7 | 3.5 | 0.25 | 0.68 | 0.68 | 87 | 1011.3 |
| 20260505054804 | 60 | 294 | 1.7 | 6.1 | 0.25 | 0.67 | 0.67 | 86 | 1011.2 |
| 20260505054703 | 60 | 289 | 1.7 | 6.1 | 0.25 | 0.67 | 0.67 | 87 | 1011.3 |
| 20260505054603 | 60 | 318 | 1.7 | 12.2 | 0.26 | 0.67 | 0.67 | 86 | 1011.2 |
| 20260505054503 | 60 | 330 | 1.7 | 12.2 | 0.27 | 0.67 | 0.67 | 86 | 1011.2 |
| 20260505054403 | 60 | 334 | 1.7 | 12.2 | 0.26 | 0.66 | 0.66 | 86 | 1011.3 |
| 20260505054303 | 60 | 337 | 1.7 | 12.2 | 0.27 | 0.66 | 0.66 | 86 | 1011.3 |
| 20260505054203 | 60 | 337 | 1.7 | 12.2 | 0.27 | 0.65 | 0.65 | 86 | 1011.4 |
| 20260505054103 | 60 | 336 | 1.7 | 12.2 | 0.27 | 0.65 | 0.65 | 86 | 1011.4 |
| 20260505054003 | 60 | 339 | 1.7 | 12.2 | 0.28 | 0.65 | 0.65 | 85 | 1011.3 |
| 20260505053903 | 60 | 341 | 1.7 | 12.2 | 0.28 | 0.65 | 0.65 | 86 | 1011.3 |
| 20260505053803 | 60 | 339 | 1.7 | 12.2 | 0.28 | 0.64 | 0.64 | 86 | 1011.2 |
| 20260505053703 | 60 | 325 | 1.7 | 12.2 | 0.28 | 0.64 | 0.64 | 85 | 1011.1 |
| 20260505053603 | 60 | 303 | 1.7 | 8.7 | 0.28 | 0.63 | 0.63 | 86 | 1011.1 |
| 20260505053503 | 60 | 286 | 1.7 | 6.1 | 0.28 | 0.62 | 0.62 | 86 | 1011.2 |
| 20260505053403 | 60 | 269 | 1.7 | 6.1 | 0.28 | 0.62 | 0.62 | 86 | 1011.2 |
| 20260505053303 | 60 | 268 | 1.7 | 6.1 | 0.28 | 0.61 | 0.61 | 86 | 1011.2 |
| 20260505053203 | 60 | 267 | 1.7 | 6.1 | 0.27 | 0.61 | 0.61 | 86 | 1011.2 |
| 20260505053103 | 60 | 251 | 1.7 | 6.1 | 0.27 | 0.61 | 0.61 | 85 | 1011.4 |
| 20260505053003 | 60 | 244 | 1.7 | 6.1 | 0.26 | 0.60 | 0.60 | 85 | 1011.3 |
| 20260505052903 | 60 | 237 | 2.6 | 14.8 | 0.26 | 0.59 | 0.59 | 85 | 1011.3 |
| 20260505052803 | 60 | 240 | 2.6 | 14.8 | 0.25 | 0.58 | 0.58 | 86 | 1011.3 |
| 20260505052703 | 60 | 252 | 2.6 | 14.8 | 0.25 | 0.58 | 0.58 | 86 | 1011.2 |
| 20260505052603 | 60 | 255 | 2.6 | 14.8 | 0.25 | 0.57 | 0.57 | 86 | 1011.3 |
| 20260505052504 | 60 | 257 | 2.6 | 14.8 | 0.25 | 0.57 | 0.57 | 86 | 1011.3 |
| 20260505052403 | 60 | 274 | 1.7 | 14.8 | 0.25 | 0.57 | 0.57 | 85 | 1011.1 |
| 20260505052304 | 60 | 286 | 1.7 | 14.8 | 0.25 | 0.57 | 0.57 | 85 | 1011.0 |
| 20260505052203 | 60 | 288 | 1.7 | 14.8 | 0.25 | 0.56 | 0.56 | 85 | 1011.1 |
| 20260505052103 | 60 | 300 | 1.7 | 14.8 | 0.24 | 0.55 | 0.55 | 85 | 1011.1 |
| 20260505052003 | 60 | 311 | 1.7 | 14.8 | 0.25 | 0.55 | 0.55 | 85 | 1011.2 |
| 20260505051905 | 59 | 329 | 0.9 | 7.8 | 0.25 | 0.54 | 0.54 | 86 | 1011.3 |
| 20260505051803 | 59 | 335 | 0.9 | 7.8 | 0.25 | 0.54 | 0.54 | 86 | 1011.2 |
| 20260505051703 | 59 | 334 | 0.9 | 7.8 | 0.25 | 0.54 | 0.54 | 85 | 1011.2 |
| 20260505051603 | 59 | 334 | 0.9 | 7.8 | 0.25 | 0.53 | 0.53 | 85 | 1011.4 |
| 20260505051503 | 59 | 337 | 0.9 | 7.8 | 0.24 | 0.52 | 0.52 | 86 | 1011.4 |
| 20260505051403 | 59 | 330 | 0.0 | 7.0 | 0.24 | 0.51 | 0.51 | 86 | 1011.4 |
| 20260505051303 | 59 | 325 | 0.0 | 7.0 | 0.24 | 0.51 | 0.51 | 86 | 1011.4 |
| 20260505051203 | 59 | 325 | 0.0 | 7.0 | 0.24 | 0.51 | 0.51 | 86 | 1011.4 |
| 20260505051103 | 59 | 318 | 0.0 | 7.0 | 0.24 | 0.50 | 0.50 | 87 | 1011.6 |
| 20260505051003 | 59 | 300 | 0.0 | 3.5 | 0.23 | 0.50 | 0.50 | 87 | 1011.8 |
| 20260505050903 | 59 | 0 | 0.0 | 3.5 | 0.23 | 0.50 | 0.50 | 87 | 1012.0 |
| 20260505050803 | 58 | 0 | 0.0 | 3.5 | 0.23 | 0.50 | 0.50 | 87 | 1012.0 |
| 20260505050703 | 58 | 0 | 0.0 | 3.5 | 0.22 | 0.49 | 0.49 | 87 | 1012.0 |
| 20260505050603 | 58 | 0 | 0.0 | 3.5 | 0.22 | 0.49 | 0.49 | 88 | 1012.1 |
| 20260505050503 | 58 | 0 | 0.0 | 3.5 | 0.21 | 0.48 | 0.48 | 88 | 1012.1 |
| 20260505050403 | 58 | 0 | 0.0 | 3.5 | 0.21 | 0.48 | 0.48 | 88 | 1012.1 |
| 20260505050303 | 58 | 0 | 0.0 | 3.5 | 0.20 | 0.47 | 0.47 | 89 | 1012.2 |
| 20260505050203 | 58 | 0 | 0.0 | 3.5 | 0.20 | 0.47 | 0.47 | 89 | 1012.1 |
| 20260505050103 | 58 | 360 | 0.0 | 0.9 | 0.20 | 0.46 | 0.46 | 88 | 1012.1 |
| 20260505041703 | 58 | 0 | 0.0 | 7.0 | 0.06 | 0.28 | 0.28 | 85 | 1012.4 |
| 20260505041603 | 58 | 0 | 0.0 | 7.0 | 0.05 | 0.28 | 0.28 | 85 | 1012.3 |
| 20260505041503 | 58 | 16 | 0.0 | 7.0 | 0.05 | 0.28 | 0.28 | 85 | 1012.3 |
| 20260505041403 | 58 | 16 | 0.0 | 7.0 | 0.04 | 0.27 | 0.27 | 85 | 1012.2 |
| 20260505041303 | 58 | 0 | 0.0 | 0.0 | 0.04 | 0.27 | 0.27 | 86 | 1012.2 |
| 20260505041203 | 58 | 0 | 0.0 | 0.0 | 0.04 | 0.27 | 0.27 | 86 | 1012.2 |
| 20260505041103 | 58 | 0 | 0.0 | 0.0 | 0.04 | 0.27 | 0.27 | 87 | 1012.2 |
| 20260505041003 | 58 | 0 | 0.9 | 0.0 | 0.04 | 0.27 | 0.27 | 87 | 1012.2 |
| 20260505040903 | 58 | 0 | 0.9 | 0.0 | 0.04 | 0.27 | 0.27 | 87 | 1012.2 |
| 20260505040803 | 58 | 0 | 0.9 | 0.0 | 0.04 | 0.27 | 0.27 | 86 | 1012.2 |
| 20260505040703 | 58 | 352 | 0.9 | 3.5 | 0.04 | 0.27 | 0.27 | 86 | 1012.2 |
| 20260505040603 | 58 | 350 | 0.9 | 3.5 | 0.04 | 0.27 | 0.27 | 86 | 1012.2 |
| 20260505040503 | 58 | 3 | 0.9 | 5.2 | 0.04 | 0.27 | 0.27 | 86 | 1012.1 |
| 20260505040403 | 58 | 5 | 0.9 | 7.0 | 0.04 | 0.27 | 0.27 | 86 | 1012.1 |
| 20260505040303 | 58 | 9 | 0.9 | 7.0 | 0.04 | 0.27 | 0.27 | 85 | 1012.2 |
| 20260505040203 | 58 | 9 | 0.9 | 7.0 | 0.04 | 0.27 | 0.27 | 85 | 1012.2 |
| 20260505040103 | 58 | 9 | 0.9 | 7.0 | 0.04 | 0.27 | 0.27 | 85 | 1012.1 |
| 20260505040004 | 58 | 12 | 0.9 | 7.0 | 0.04 | 0.27 | 0.27 | 85 | 1012.1 |
| 20260505035903 | 58 | 12 | 0.9 | 7.0 | 0.04 | 0.27 | 0.27 | 85 | 1012.1 |
| 20260505035803 | 58 | 12 | 0.9 | 7.0 | 0.04 | 0.27 | 0.27 | 85 | 1012.1 |
| 20260505035703 | 58 | 13 | 0.9 | 7.0 | 0.04 | 0.27 | 0.27 | 85 | 1012.1 |
| 20260505035603 | 58 | 20 | 0.9 | 7.0 | 0.05 | 0.27 | 0.27 | 85 | 1012.1 |
| 20260505035503 | 58 | 24 | 0.9 | 7.0 | 0.05 | 0.27 | 0.27 | 85 | 1012.1 |
| 20260505035403 | 58 | 39 | 0.9 | 3.5 | 0.04 | 0.26 | 0.26 | 86 | 1012.2 |
| 20260505035304 | 58 | 39 | 0.9 | 2.6 | 0.04 | 0.26 | 0.26 | 86 | 1012.2 |
| 20260505035203 | 58 | 20 | 0.9 | 5.2 | 0.04 | 0.26 | 0.26 | 86 | 1012.2 |
| 20260505035103 | 58 | 19 | 0.9 | 5.2 | 0.04 | 0.26 | 0.26 | 85 | 1012.2 |
| 20260505035003 | 58 | 13 | 0.9 | 5.2 | 0.03 | 0.25 | 0.25 | 86 | 1012.2 |
| 20260505034903 | 58 | 13 | 0.9 | 5.2 | 0.03 | 0.25 | 0.25 | 86 | 1012.2 |
| 20260505034803 | 58 | 13 | 0.9 | 5.2 | 0.03 | 0.25 | 0.25 | 86 | 1012.3 |
| 20260505034703 | 58 | 13 | 0.0 | 5.2 | 0.03 | 0.25 | 0.25 | 86 | 1012.3 |
| 20260505034603 | 58 | 11 | 0.0 | 5.2 | 0.04 | 0.25 | 0.25 | 86 | 1012.2 |
| 20260505034503 | 58 | 11 | 0.0 | 5.2 | 0.04 | 0.25 | 0.25 | 86 | 1012.2 |
| 20260505034403 | 58 | 11 | 0.0 | 5.2 | 0.03 | 0.24 | 0.24 | 86 | 1012.4 |
| 20260505034303 | 58 | 10 | 0.0 | 5.2 | 0.03 | 0.24 | 0.24 | 86 | 1012.3 |
| 20260505034203 | 58 | 0 | 0.0 | 4.3 | 0.02 | 0.24 | 0.24 | 86 | 1012.3 |
| 20260505034103 | 58 | 0 | 0.0 | 2.6 | 0.03 | 0.24 | 0.24 | 86 | 1012.4 |
| 20260505034003 | 58 | 0 | 0.0 | 2.6 | 0.02 | 0.23 | 0.23 | 86 | 1012.4 |
| 20260505033903 | 58 | 0 | 0.0 | 3.5 | 0.02 | 0.23 | 0.23 | 86 | 1012.3 |
| 20260505033803 | 58 | 0 | 0.0 | 3.5 | 0.03 | 0.23 | 0.23 | 85 | 1012.3 |
| 20260505033703 | 58 | 0 | 0.0 | 3.5 | 0.03 | 0.23 | 0.23 | 86 | 1012.4 |
| 20260505033603 | 58 | 0 | 0.0 | 3.5 | 0.03 | 0.23 | 0.23 | 87 | 1012.3 |
| 20260505033503 | 58 | 0 | 0.0 | 3.5 | 0.03 | 0.23 | 0.23 | 87 | 1012.4 |
| 20260505033403 | 58 | 0 | 0.0 | 3.5 | 0.03 | 0.23 | 0.23 | 87 | 1012.5 |
| 20260505033303 | 58 | 0 | 0.0 | 3.5 | 0.04 | 0.23 | 0.23 | 87 | 1012.4 |
| 20260505033203 | 58 | 0 | 0.0 | 3.5 | 0.04 | 0.23 | 0.23 | 87 | 1012.4 |
| 20260505033104 | 58 | 0 | 0.0 | 3.5 | 0.04 | 0.23 | 0.23 | 87 | 1012.4 |
| 20260505033003 | 58 | 0 | 0.0 | 3.5 | 0.05 | 0.23 | 0.23 | 87 | 1012.4 |
| 20260505032903 | 58 | 0 | 0.0 | 0.0 | 0.05 | 0.23 | 0.23 | 87 | 1012.5 |
| 20260505032803 | 58 | 0 | 0.0 | 0.0 | 0.05 | 0.23 | 0.23 | 87 | 1012.5 |
| 20260505032704 | 58 | 0 | 0.0 | 0.0 | 0.06 | 0.23 | 0.23 | 86 | 1012.6 |
| 20260505032603 | 58 | 0 | 0.0 | 0.0 | 0.06 | 0.23 | 0.23 | 86 | 1012.6 |
| 20260505032503 | 58 | 0 | 0.0 | 0.0 | 0.06 | 0.23 | 0.23 | 86 | 1012.5 |
| 20260505032403 | 58 | 0 | 0.0 | 0.0 | 0.06 | 0.23 | 0.23 | 86 | 1012.6 |
| 20260505032304 | 58 | 0 | 0.0 | 0.0 | 0.06 | 0.23 | 0.23 | 86 | 1012.7 |
| 20260505032203 | 58 | 0 | 0.0 | 0.0 | 0.06 | 0.23 | 0.23 | 86 | 1012.7 |
| 20260505032103 | 58 | 0 | 0.0 | 0.0 | 0.07 | 0.23 | 0.23 | 85 | 1012.7 |
| 20260505032003 | 58 | 0 | 0.0 | 0.0 | 0.07 | 0.23 | 0.23 | 85 | 1012.6 |
| 20260505031903 | 58 | 0 | 0.0 | 0.0 | 0.07 | 0.23 | 0.23 | 86 | 1012.7 |
| 20260505031803 | 58 | 0 | 0.0 | 0.0 | 0.07 | 0.23 | 0.23 | 86 | 1012.7 |
| 20260505031703 | 58 | 0 | 0.0 | 0.0 | 0.08 | 0.23 | 0.23 | 86 | 1012.8 |
| 20260505031603 | 58 | 0 | 0.0 | 0.0 | 0.08 | 0.23 | 0.23 | 85 | 1012.8 |
| 20260505031503 | 58 | 0 | 0.0 | 2.6 | 0.08 | 0.23 | 0.23 | 86 | 1012.8 |
| 20260505031403 | 58 | 0 | 0.0 | 2.6 | 0.08 | 0.23 | 0.23 | 85 | 1012.8 |
| 20260505031303 | 58 | 0 | 0.0 | 2.6 | 0.08 | 0.23 | 0.23 | 86 | 1012.7 |
| 20260505031203 | 58 | 0 | 0.0 | 2.6 | 0.09 | 0.23 | 0.23 | 86 | 1012.8 |
| 20260505031103 | 58 | 0 | 0.0 | 2.6 | 0.09 | 0.23 | 0.23 | 85 | 1012.7 |
| 20260505031003 | 58 | 0 | 0.0 | 2.6 | 0.09 | 0.23 | 0.23 | 85 | 1012.8 |
| 20260505030903 | 58 | 0 | 0.0 | 2.6 | 0.09 | 0.23 | 0.23 | 84 | 1012.8 |
| 20260505030803 | 58 | 0 | 0.0 | 2.6 | 0.09 | 0.23 | 0.23 | 85 | 1012.8 |
| 20260505030703 | 58 | 0 | 0.0 | 2.6 | 0.09 | 0.23 | 0.23 | 85 | 1012.9 |
| 20260505030603 | 58 | 0 | 0.0 | 2.6 | 0.09 | 0.23 | 0.23 | 85 | 1012.9 |
| 20260505030503 | 58 | 0 | 0.0 | 2.6 | 0.10 | 0.23 | 0.23 | 85 | 1013.0 |
| 20260505030403 | 58 | 0 | 0.0 | 0.0 | 0.10 | 0.23 | 0.23 | 85 | 1013.0 |
| 20260505030303 | 58 | 0 | 0.0 | 0.0 | 0.10 | 0.23 | 0.23 | 85 | 1012.9 |
| 20260505030203 | 58 | 0 | 0.0 | 0.0 | 0.11 | 0.23 | 0.23 | 86 | 1013.0 |
| 20260505030103 | 58 | 0 | 0.0 | 0.0 | 0.11 | 0.23 | 0.23 | 86 | 1013.0 |
| 20260505030003 | 58 | 0 | 0.0 | 0.0 | 0.12 | 0.23 | 0.23 | 86 | 1013.0 |
| 20260505025903 | 58 | 0 | 0.0 | 0.0 | 0.12 | 0.23 | 0.23 | 86 | 1013.0 |
| 20260505025803 | 58 | 0 | 0.0 | 0.0 | 0.12 | 0.23 | 0.23 | 85 | 1013.1 |
| 20260505025703 | 58 | 0 | 0.0 | 0.0 | 0.13 | 0.23 | 0.23 | 85 | 1013.0 |
| 20260505025603 | 58 | 0 | 0.0 | 0.0 | 0.12 | 0.22 | 0.22 | 85 | 1013.1 |
| 20260505025503 | 58 | 0 | 0.0 | 0.0 | 0.12 | 0.22 | 0.22 | 84 | 1013.1 |
| 20260505025403 | 58 | 0 | 0.0 | 0.0 | 0.13 | 0.22 | 0.22 | 85 | 1013.1 |
| 20260505025305 | 58 | 0 | 0.0 | 0.0 | 0.13 | 0.22 | 0.22 | 85 | 1013.2 |
| 20260505025203 | 58 | 0 | 0.0 | 0.0 | 0.13 | 0.22 | 0.22 | 85 | 1013.2 |
| 20260505025104 | 58 | 0 | 0.0 | 0.0 | 0.13 | 0.22 | 0.22 | 86 | 1013.3 |
| 20260505025004 | 58 | 0 | 0.0 | 0.0 | 0.13 | 0.22 | 0.22 | 85 | 1013.3 |
| 20260505024903 | 58 | 0 | 0.0 | 0.0 | 0.13 | 0.22 | 0.22 | 85 | 1013.3 |
| 20260505024803 | 58 | 119 | 0.9 | 0.9 | 0.13 | 0.22 | 0.22 | 85 | 1013.3 |
| 20260505024703 | 58 | 37 | 0.9 | 2.6 | 0.13 | 0.22 | 0.22 | 85 | 1013.4 |
| 20260505024603 | 58 | 36 | 0.9 | 2.6 | 0.13 | 0.21 | 0.21 | 85 | 1013.4 |
| 20260505024503 | 58 | 35 | 0.9 | 2.6 | 0.13 | 0.21 | 0.21 | 84 | 1013.4 |
| 20260505024403 | 58 | 23 | 0.9 | 4.3 | 0.13 | 0.21 | 0.21 | 84 | 1013.4 |
| 20260505024303 | 58 | 20 | 0.9 | 4.3 | 0.14 | 0.21 | 0.21 | 84 | 1013.3 |
| 20260505024203 | 58 | 14 | 0.9 | 4.3 | 0.14 | 0.21 | 0.21 | 84 | 1013.4 |
| 20260505024103 | 58 | 14 | 0.9 | 4.3 | 0.13 | 0.20 | 0.20 | 83 | 1013.5 |
| 20260505024003 | 58 | 14 | 0.9 | 4.3 | 0.13 | 0.20 | 0.20 | 83 | 1013.4 |
| 20260505023903 | 58 | 351 | 0.9 | 4.3 | 0.13 | 0.20 | 0.20 | 84 | 1013.4 |
| 20260505023803 | 58 | 350 | 0.9 | 4.3 | 0.13 | 0.20 | 0.20 | 84 | 1013.5 |
| 20260505023703 | 58 | 344 | 0.9 | 4.3 | 0.13 | 0.20 | 0.20 | 85 | 1013.4 |
| 20260505023603 | 58 | 339 | 0.9 | 4.3 | 0.13 | 0.20 | 0.20 | 84 | 1013.4 |
| 20260505023503 | 58 | 333 | 0.9 | 4.3 | 0.13 | 0.20 | 0.20 | 84 | 1013.5 |
| 20260505023403 | 58 | 314 | 0.9 | 4.3 | 0.13 | 0.20 | 0.20 | 84 | 1013.5 |
| 20260505023303 | 58 | 304 | 0.9 | 5.2 | 0.13 | 0.19 | 0.19 | 84 | 1013.5 |
| 20260505023203 | 58 | 269 | 0.9 | 6.1 | 0.13 | 0.19 | 0.19 | 84 | 1013.6 |
| 20260505023103 | 58 | 271 | 0.9 | 6.1 | 0.13 | 0.19 | 0.19 | 84 | 1013.6 |
| 20260505023003 | 58 | 274 | 0.9 | 6.1 | 0.13 | 0.18 | 0.18 | 83 | 1013.6 |
| 20260505022903 | 58 | 289 | 0.9 | 6.1 | 0.13 | 0.18 | 0.18 | 83 | 1013.6 |
| 20260505022803 | 58 | 289 | 0.9 | 6.1 | 0.13 | 0.18 | 0.18 | 84 | 1013.6 |
| 20260505022703 | 58 | 289 | 0.0 | 6.1 | 0.12 | 0.17 | 0.18 | 84 | 1013.6 |
| 20260505022603 | 58 | 289 | 0.0 | 6.1 | 0.12 | 0.17 | 0.17 | 84 | 1013.6 |
| 20260505022503 | 58 | 289 | 0.0 | 6.1 | 0.13 | 0.17 | 0.17 | 85 | 1013.6 |
| 20260505022403 | 58 | 289 | 0.0 | 6.1 | 0.13 | 0.17 | 0.17 | 85 | 1013.6 |
| 20260505022304 | 57 | 301 | 0.0 | 6.1 | 0.12 | 0.17 | 0.17 | 85 | 1013.6 |
| 20260505022203 | 57 | 0 | 0.0 | 3.5 | 0.13 | 0.17 | 0.17 | 87 | 1013.7 |
| 20260505022103 | 57 | 0 | 0.0 | 3.5 | 0.12 | 0.16 | 0.16 | 87 | 1013.7 |
| 20260505022003 | 57 | 0 | 0.0 | 5.2 | 0.12 | 0.16 | 0.16 | 87 | 1013.7 |
| 20260505021903 | 57 | 0 | 0.0 | 5.2 | 0.12 | 0.16 | 0.16 | 87 | 1013.7 |
| 20260505021803 | 57 | 0 | 0.0 | 5.2 | 0.12 | 0.16 | 0.16 | 87 | 1013.7 |
| 20260505021703 | 58 | 0 | 0.0 | 5.2 | 0.12 | 0.15 | 0.15 | 87 | 1013.7 |
| 20260505021603 | 58 | 0 | 0.0 | 5.2 | 0.12 | 0.15 | 0.15 | 87 | 1013.7 |
| 20260505021503 | 58 | 0 | 0.0 | 5.2 | 0.12 | 0.15 | 0.15 | 87 | 1013.8 |
| 20260505021403 | 58 | 0 | 0.0 | 5.2 | 0.12 | 0.15 | 0.15 | 87 | 1013.8 |
| 20260505021303 | 58 | 0 | 0.0 | 5.2 | 0.12 | 0.15 | 0.15 | 87 | 1013.7 |
| 20260505021203 | 58 | 0 | 0.0 | 5.2 | 0.11 | 0.14 | 0.14 | 87 | 1013.7 |
| 20260505021103 | 58 | 0 | 0.0 | 5.2 | 0.11 | 0.14 | 0.14 | 87 | 1013.7 |
| 20260505021003 | 58 | 0 | 0.0 | 0.0 | 0.11 | 0.14 | 0.14 | 88 | 1013.8 |
| 20260505020903 | 58 | 0 | 0.0 | 0.0 | 0.10 | 0.13 | 0.13 | 88 | 1013.9 |
| 20260505020803 | 58 | 0 | 0.0 | 0.0 | 0.11 | 0.13 | 0.13 | 88 | 1013.9 |
| 20260505020603 | 58 | 0 | 0.0 | 0.0 | 0.11 | 0.13 | 0.13 | 88 | 1014.0 |
| 20260505020503 | 58 | 0 | 0.0 | 0.0 | 0.10 | 0.13 | 0.13 | 88 | 1014.0 |
| 20260505020403 | 58 | 0 | 0.0 | 0.0 | 0.10 | 0.13 | 0.13 | 88 | 1014.0 |
| 20260505020303 | 58 | 0 | 0.0 | 0.0 | 0.10 | 0.13 | 0.13 | 88 | 1014.0 |
| 20260505020203 | 58 | 0 | 0.0 | 0.0 | 0.09 | 0.12 | 0.12 | 88 | 1014.0 |
| 20260505020103 | 58 | 0 | 0.0 | 0.0 | 0.09 | 0.12 | 0.12 | 88 | 1014.0 |
| 20260505020003 | 58 | 0 | 0.0 | 0.0 | 0.09 | 0.11 | 0.11 | 88 | 1014.0 |
| 20260505015903 | 58 | 0 | 0.0 | 0.0 | 0.09 | 0.11 | 0.11 | 88 | 1013.9 |
| 20260505015803 | 58 | 0 | 0.0 | 0.0 | 0.09 | 0.11 | 0.11 | 88 | 1014.0 |
| 20260505015703 | 58 | 0 | 0.0 | 0.0 | 0.09 | 0.10 | 0.10 | 88 | 1014.0 |
| 20260505015603 | 58 | 0 | 0.0 | 0.0 | 0.09 | 0.10 | 0.10 | 88 | 1013.9 |
| 20260505015503 | 58 | 0 | 0.0 | 0.0 | 0.09 | 0.10 | 0.10 | 88 | 1014.0 |
| 20260505015403 | 58 | 0 | 0.0 | 0.0 | 0.09 | 0.09 | 0.09 | 88 | 1014.0 |
| 20260505015304 | 58 | 0 | 0.0 | 0.0 | 0.09 | 0.09 | 0.09 | 87 | 1014.0 |
| 20260505015203 | 58 | 0 | 0.0 | 0.0 | 0.09 | 0.09 | 0.09 | 87 | 1014.0 |
| 20260505015103 | 58 | 0 | 0.0 | 0.0 | 0.09 | 0.09 | 0.09 | 87 | 1014.1 |
| 20260505015003 | 58 | 0 | 0.0 | 0.0 | 0.08 | 0.09 | 0.09 | 87 | 1014.1 |
| 20260505014903 | 58 | 0 | 0.0 | 0.0 | 0.08 | 0.09 | 0.09 | 87 | 1014.2 |
| 20260505014803 | 58 | 0 | 0.0 | 0.0 | 0.08 | 0.09 | 0.09 | 87 | 1014.1 |
| 20260505014703 | 58 | 0 | 0.0 | 0.0 | 0.09 | 0.09 | 0.09 | 87 | 1014.1 |
| 20260505014603 | 58 | 0 | 0.0 | 0.0 | 0.08 | 0.08 | 0.08 | 87 | 1014.1 |
| 20260505014503 | 58 | 0 | 0.0 | 0.0 | 0.08 | 0.08 | 0.08 | 87 | 1014.2 |
| 20260505014403 | 58 | 0 | 0.0 | 0.0 | 0.08 | 0.08 | 0.08 | 87 | 1014.2 |
| 20260505014303 | 58 | 0 | 0.0 | 0.0 | 0.07 | 0.07 | 0.07 | 86 | 1014.2 |
| 20260505014205 | 58 | 0 | 0.0 | 0.0 | 0.07 | 0.07 | 0.07 | 87 | 1014.2 |
| 20260505014103 | 58 | 0 | 0.0 | 0.0 | 0.07 | 0.07 | 0.07 | 87 | 1014.2 |
| 20260505014003 | 58 | 0 | 0.0 | 0.0 | 0.07 | 0.07 | 0.07 | 87 | 1014.2 |
| 20260505013903 | 58 | 0 | 0.0 | 0.0 | 0.07 | 0.07 | 0.07 | 87 | 1014.2 |
| 20260505013803 | 58 | 0 | 0.0 | 0.0 | 0.06 | 0.06 | 0.06 | 87 | 1014.2 |
| 20260505013703 | 58 | 0 | 0.0 | 0.0 | 0.06 | 0.06 | 0.06 | 87 | 1014.2 |
| 20260505013603 | 58 | 0 | 0.0 | 0.0 | 0.06 | 0.06 | 0.06 | 87 | 1014.2 |
| 20260505013503 | 58 | 0 | 0.0 | 0.0 | 0.06 | 0.06 | 0.06 | 86 | 1014.2 |
| 20260505013403 | 58 | 0 | 0.0 | 0.0 | 0.06 | 0.06 | 0.06 | 86 | 1014.2 |
| 20260505013303 | 58 | 0 | 0.0 | 0.0 | 0.06 | 0.06 | 0.06 | 85 | 1014.2 |
| 20260505013203 | 58 | 0 | 0.0 | 0.0 | 0.06 | 0.06 | 0.06 | 85 | 1014.2 |
| 20260505013103 | 58 | 0 | 0.0 | 1.7 | 0.06 | 0.06 | 0.06 | 86 | 1014.2 |
| 20260505013003 | 58 | 0 | 0.0 | 2.6 | 0.06 | 0.06 | 0.06 | 85 | 1014.3 |
| 20260505012903 | 58 | 0 | 0.0 | 2.6 | 0.06 | 0.06 | 0.06 | 85 | 1014.2 |
| 20260505012803 | 58 | 0 | 0.0 | 2.6 | 0.06 | 0.06 | 0.06 | 86 | 1014.3 |
| 20260505012703 | 58 | 0 | 0.0 | 2.6 | 0.06 | 0.06 | 0.06 | 86 | 1014.2 |
| 20260505012603 | 58 | 0 | 0.0 | 2.6 | 0.06 | 0.06 | 0.06 | 85 | 1014.2 |
| 20260505012503 | 58 | 0 | 0.0 | 2.6 | 0.05 | 0.05 | 0.06 | 85 | 1014.3 |
| 20260505012403 | 58 | 0 | 0.0 | 2.6 | 0.05 | 0.05 | 0.05 | 85 | 1014.3 |
| 20260505012304 | 58 | 0 | 0.0 | 2.6 | 0.05 | 0.05 | 0.05 | 85 | 1014.3 |
| 20260505012203 | 58 | 0 | 0.0 | 2.6 | 0.04 | 0.04 | 0.04 | 85 | 1014.3 |
| 20260505012103 | 59 | 0 | 0.0 | 2.6 | 0.04 | 0.04 | 0.04 | 85 | 1014.3 |
| 20260505012003 | 59 | 0 | 0.0 | 0.0 | 0.04 | 0.04 | 0.04 | 85 | 1014.3 |
| 20260505011903 | 59 | 0 | 0.0 | 0.0 | 0.04 | 0.04 | 0.04 | 85 | 1014.3 |
| 20260505011803 | 59 | 0 | 0.0 | 0.0 | 0.04 | 0.04 | 0.04 | 85 | 1014.3 |
| 20260505011703 | 59 | 0 | 0.0 | 0.0 | 0.03 | 0.03 | 0.03 | 85 | 1014.4 |
| 20260505011603 | 59 | 0 | 0.0 | 0.0 | 0.03 | 0.03 | 0.03 | 85 | 1014.3 |
| 20260505011503 | 59 | 0 | 0.0 | 0.0 | 0.03 | 0.03 | 0.03 | 85 | 1014.3 |
| 20260505011403 | 59 | 0 | 0.0 | 0.0 | 0.03 | 0.03 | 0.03 | 85 | 1014.4 |
| 20260505011303 | 59 | 0 | 0.0 | 0.0 | 0.03 | 0.03 | 0.03 | 85 | 1014.4 |
| 20260505011203 | 59 | 0 | 0.0 | 0.0 | 0.03 | 0.03 | 0.03 | 84 | 1014.4 |
| 20260505011103 | 59 | 0 | 0.0 | 0.0 | 0.03 | 0.03 | 0.03 | 84 | 1014.4 |
| 20260505011003 | 59 | 0 | 0.0 | 0.0 | 0.03 | 0.03 | 0.03 | 84 | 1014.5 |
| 20260505010903 | 59 | 0 | 0.0 | 0.0 | 0.03 | 0.03 | 0.03 | 83 | 1014.5 |
| 20260505010803 | 59 | 0 | 0.0 | 0.0 | 0.02 | 0.02 | 0.02 | 84 | 1014.5 |
| 20260505010703 | 59 | 0 | 0.0 | 0.0 | 0.02 | 0.02 | 0.02 | 83 | 1014.5 |
| 20260505010603 | 59 | 0 | 0.0 | 0.0 | 0.02 | 0.02 | 0.02 | 83 | 1014.5 |
| 20260505010503 | 59 | 0 | 0.0 | 0.9 | 0.02 | 0.02 | 0.02 | 83 | 1014.6 |
| 20260505010403 | 60 | 0 | 0.0 | 0.9 | 0.02 | 0.02 | 0.02 | 82 | 1014.6 |
| 20260505010303 | 60 | 0 | 0.0 | 0.9 | 0.02 | 0.02 | 0.02 | 82 | 1014.6 |
| 20260505010203 | 60 | 0 | 0.0 | 0.9 | 0.02 | 0.02 | 0.02 | 82 | 1014.6 |
| 20260505010103 | 60 | 0 | 0.0 | 0.9 | 0.02 | 0.02 | 0.02 | 82 | 1014.6 |
| 20260505010004 | 60 | 0 | 0.0 | 0.9 | 0.02 | 0.02 | 0.02 | 82 | 1014.6 |
| 20260505005903 | 60 | 0 | 0.0 | 0.9 | 0.02 | 0.02 | 0.02 | 81 | 1014.7 |
| 20260505005803 | 60 | 0 | 0.0 | 1.7 | 0.02 | 0.02 | 0.02 | 81 | 1014.7 |
| 20260505005703 | 60 | 0 | 0.0 | 1.7 | 0.02 | 0.02 | 0.02 | 81 | 1014.7 |
| 20260505005603 | 60 | 0 | 0.0 | 1.7 | 0.02 | 0.02 | 0.02 | 79 | 1014.7 |
| 20260505005503 | 60 | 0 | 0.0 | 1.7 | 0.01 | 0.01 | 0.01 | 81 | 1014.8 |
| 20260505005403 | 60 | 0 | 0.0 | 1.7 | 0.01 | 0.01 | 0.01 | 80 | 1014.8 |
| 20260505005304 | 60 | 0 | 0.0 | 1.7 | 0.01 | 0.01 | 0.01 | 81 | 1014.9 |
| 20260505005203 | 60 | 0 | 0.0 | 1.7 | 0.01 | 0.01 | 0.01 | 80 | 1014.9 |
| 20260505005104 | 60 | 0 | 0.0 | 1.7 | 0.01 | 0.01 | 0.01 | 79 | 1014.9 |
| 20260505005004 | 60 | 0 | 0.0 | 1.7 | 0.01 | 0.01 | 0.01 | 79 | 1014.9 |
| 20260505004903 | 60 | 0 | 0.0 | 1.7 | 0.01 | 0.01 | 0.01 | 80 | 1014.9 |
| 20260505004803 | 60 | 0 | 0.0 | 0.0 | 0.01 | 0.01 | 0.01 | 80 | 1015.0 |
| 20260505004703 | 60 | 0 | 0.0 | 0.0 | 0.00 | 0.00 | 0.00 | 80 | 1015.0 |
| 20260505004603 | 60 | 0 | 0.0 | 0.0 | 0.00 | 0.00 | 0.00 | 80 | 1015.0 |
| 20260505004503 | 60 | 0 | 0.0 | 0.0 | 0.00 | 0.00 | 0.00 | 80 | 1015.1 |
| 20260505004403 | 60 | 0 | 0.0 | 0.0 | 0.00 | 0.00 | 0.00 | 79 | 1015.2 |
| 20260505004303 | 61 | 0 | 0.0 | 0.0 | 0.00 | 0.00 | 0.00 | 79 | 1015.2 |
| 20260505004203 | 61 | 0 | 0.0 | 0.0 | 0.00 | 0.00 | 0.00 | 79 | 1015.2 |
| 20260505004103 | 61 | 0 | 0.0 | 0.0 | 0.00 | 0.00 | 0.00 | 79 | 1015.2 |
| 20260505004003 | 61 | 0 | 0.0 | 0.0 | 0.00 | 0.00 | 0.00 | 79 | 1015.2 |
| 20260505003903 | 61 | 0 | 0.0 | 0.0 | 0.00 | 0.00 | 0.00 | 79 | 1015.3 |
| 20260505003803 | 61 | 0 | 0.0 | 0.0 | 0.00 | 0.00 | 0.00 | 79 | 1015.2 |
| 20260505003704 | 61 | 0 | 0.0 | 0.0 | 0.00 | 0.00 | 0.00 | 79 | 1015.3 |
| 20260505003603 | 61 | 0 | 0.0 | 0.0 | 0.00 | 0.00 | 0.00 | 79 | 1015.2 |
| 20260505003503 | 61 | 0 | 0.0 | 2.6 | 0.00 | 0.00 | 0.00 | 78 | 1015.3 |
| 20260505003403 | 61 | 0 | 0.0 | 2.6 | 0.00 | 0.00 | 0.00 | 76 | 1015.2 |
| 20260505003303 | 61 | 0 | 0.0 | 2.6 | 0.00 | 0.00 | 0.00 | 77 | 1015.3 |
| 20260505003203 | 61 | 296 | 0.0 | 2.6 | 0.00 | 0.00 | 0.00 | 77 | 1015.3 |
| 20260505003103 | 61 | 287 | 0.0 | 2.6 | 0.00 | 0.00 | 0.00 | 77 | 1015.3 |
| 20260505003003 | 61 | 287 | 0.0 | 2.6 | 0.00 | 0.00 | 0.00 | 77 | 1015.3 |
| 20260505002903 | 62 | 287 | 0.0 | 2.6 | 0.00 | 0.00 | 0.00 | 77 | 1015.3 |
| 20260505002803 | 62 | 287 | 0.0 | 2.6 | 0.00 | 0.00 | 0.00 | 76 | 1015.3 |
| 20260505002703 | 62 | 287 | 0.0 | 2.6 | 0.00 | 0.00 | 0.00 | 76 | 1015.3 |
| 20260505002603 | 62 | 287 | 0.0 | 2.6 | 0.00 | 0.00 | 0.00 | 76 | 1015.3 |
| 20260505002503 | 62 | 284 | 0.0 | 2.6 | 0.00 | 0.00 | 0.00 | 75 | 1015.3 |
| 20260505002403 | 62 | 275 | 0.0 | 2.6 | 0.00 | 0.00 | 0.00 | 75 | 1015.3 |
| 20260505002304 | 62 | 265 | 0.0 | 2.6 | 0.00 | 0.00 | 0.00 | 73 | 1015.3 |
| 20260505002203 | 62 | 251 | 0.0 | 4.3 | 0.00 | 0.00 | 0.00 | 74 | 1015.3 |
| 20260505002103 | 63 | 0 | 0.0 | 6.1 | 0.00 | 0.00 | 0.00 | 73 | 1015.3 |
| 20260505002003 | 63 | 0 | 0.0 | 6.1 | 0.00 | 0.00 | 0.00 | 74 | 1015.3 |
| 20260505001903 | 63 | 0 | 0.0 | 6.1 | 0.00 | 0.00 | 0.00 | 73 | 1015.3 |
| 20260505001803 | 63 | 0 | 0.0 | 6.1 | 0.00 | 0.00 | 0.00 | 73 | 1015.3 |
| 20260505001703 | 63 | 0 | 0.0 | 6.1 | 0.00 | 0.00 | 0.00 | 73 | 1015.4 |
| 20260505001603 | 63 | 0 | 0.0 | 6.1 | 0.00 | 0.00 | 0.00 | 72 | 1015.4 |
| 20260505001503 | 63 | 0 | 0.0 | 6.1 | 0.00 | 0.00 | 0.00 | 71 | 1015.4 |
| 20260505001403 | 63 | 0 | 0.0 | 6.1 | 0.00 | 0.00 | 0.00 | 69 | 1015.4 |
| 20260505001303 | 63 | 0 | 0.0 | 6.1 | 0.00 | 0.00 | 0.00 | 69 | 1015.4 |
| 20260505001203 | 63 | 0 | 0.0 | 6.1 | 0.00 | 0.00 | 0.00 | 70 | 1015.4 |
| 20260505001104 | 63 | 0 | 0.0 | 0.0 | 0.00 | 0.00 | 0.00 | 70 | 1015.4 |
| 20260505001003 | 63 | 0 | 0.0 | 0.0 | 0.00 | 0.00 | 0.00 | 69 | 1015.4 |
| 20260505000903 | 64 | 0 | 0.0 | 0.0 | 0.00 | 0.00 | 0.00 | 69 | 1015.5 |
| 20260505000803 | 64 | 0 | 0.0 | 0.0 | 0.00 | 0.00 | 0.00 | 68 | 1015.4 |
| 20260505000703 | 64 | 0 | 0.0 | 0.0 | 0.00 | 0.00 | 0.00 | 68 | 1015.4 |
| 20260505000603 | 64 | 0 | 0.0 | 0.0 | 0.00 | 0.00 | 0.00 | 68 | 1015.5 |
| 20260505000503 | 64 | 0 | 0.0 | 0.0 | 0.00 | 0.00 | 0.00 | 66 | 1015.5 |
| 20260505000405 | 64 | 0 | 0.0 | 0.0 | 0.00 | 0.00 | 0.00 | 67 | 1015.5 |
| 20260505000303 | 64 | 0 | 0.0 | 0.0 | 0.00 | 0.00 | 0.00 | 67 | 1015.5 |
| 20260505000204 | 64 | 0 | 0.0 | 0.0 | 0.00 | 0.00 | 0.00 | 66 | 1015.5 |
| 20260505000103 | 64 | 0 | 0.0 | 0.0 | 0.00 | 0.00 | 0.00 | 66 | 1015.5 |
| 20260505000003 | 64 | 0 | 0.0 | 0.0 | 0.00 | 0.00 | 0.00 | 67 | 1015.5 |
| 20260504235903 | 64 | 0 | 0.0 | 0.0 | 0.00 | 0.00 | 0.00 | 66 | 1015.5 |
| 20260504235803 | 64 | 0 | 0.0 | 0.0 | 0.00 | 0.00 | 0.00 | 66 | 1015.5 |
| 20260504235703 | 64 | 0 | 0.0 | 0.0 | 0.00 | 0.00 | 0.00 | 66 | 1015.5 |
| 20260504235603 | 64 | 0 | 0.0 | 0.0 | 0.00 | 0.00 | 0.00 | 65 | 1015.5 |
| 20260504235503 | 64 | 0 | 0.0 | 0.0 | 0.00 | 0.00 | 0.00 | 65 | 1015.5 |
| 20260504235403 | 64 | 0 | 0.0 | 0.0 | 0.00 | 0.00 | 0.00 | 65 | 1015.5 |
| 20260504235304 | 64 | 0 | 0.0 | 0.0 | 0.00 | 0.00 | 0.00 | 65 | 1015.6 |
| 20260504235203 | 64 | 0 | 0.0 | 0.0 | 0.00 | 0.00 | 0.00 | 65 | 1015.6 |
| 20260504235103 | 64 | 0 | 0.0 | 0.0 | 0.00 | 0.00 | 0.00 | 65 | 1015.6 |
| 20260504235003 | 63 | 0 | 0.0 | 0.0 | 0.00 | 0.00 | 0.00 | 65 | 1015.6 |
| 20260504234903 | 63 | 0 | 0.0 | 0.0 | 0.00 | 0.00 | 0.00 | 65 | 1015.6 |
| 20260504234803 | 63 | 0 | 0.0 | 0.0 | 0.00 | 0.00 | 0.00 | 66 | 1015.7 |
| 20260504234703 | 63 | 0 | 0.0 | 0.0 | 0.00 | 0.00 | 0.00 | 67 | 1015.7 |
| 20260504234603 | 63 | 0 | 0.0 | 0.0 | 0.00 | 0.00 | 0.00 | 67 | 1015.8 |
| 20260504234503 | 63 | 0 | 0.0 | 0.0 | 0.00 | 0.00 | 0.00 | 67 | 1015.8 |
| 20260504234403 | 63 | 0 | 0.0 | 0.0 | 0.00 | 0.00 | 0.00 | 67 | 1015.8 |
| 20260504234303 | 63 | 0 | 0.0 | 0.0 | 0.00 | 0.00 | 0.00 | 67 | 1015.8 |
| 20260504234204 | 63 | 0 | 0.0 | 0.0 | 0.00 | 0.00 | 0.00 | 66 | 1015.8 |
| 20260504234103 | 63 | 0 | 0.0 | 0.0 | 0.00 | 0.00 | 0.00 | 66 | 1015.7 |
| 20260504234003 | 63 | 0 | 0.0 | 0.0 | 0.00 | 0.00 | 0.00 | 67 | 1015.8 |
| 20260504233903 | 64 | 0 | 0.0 | 0.0 | 0.00 | 0.00 | 0.00 | 68 | 1015.8 |
| 20260504233803 | 64 | 0 | 0.0 | 0.0 | 0.00 | 0.00 | 0.00 | 67 | 1015.8 |
| 20260504233703 | 64 | 0 | 0.0 | 0.0 | 0.00 | 0.00 | 0.00 | 67 | 1015.9 |
| 20260504233603 | 64 | 0 | 0.0 | 0.0 | 0.00 | 0.00 | 0.00 | 67 | 1015.9 |
| 20260504233503 | 64 | 0 | 0.0 | 0.0 | 0.00 | 0.00 | 0.00 | 66 | 1015.9 |
| 20260504233403 | 64 | 0 | 0.0 | 0.0 | 0.00 | 0.00 | 0.00 | 66 | 1015.9 |
| 20260504233304 | 64 | 0 | 0.0 | 0.0 | 0.00 | 0.00 | 0.00 | 66 | 1016.0 |
| 20260504233203 | 64 | 0 | 0.0 | 0.0 | 0.00 | 0.00 | 0.00 | 65 | 1016.0 |
| 20260504233103 | 64 | 0 | 0.0 | 0.0 | 0.00 | 0.00 | 0.00 | 65 | 1016.0 |
| 20260504233003 | 64 | 0 | 0.0 | 0.0 | 0.00 | 0.00 | 0.00 | 66 | 1016.0 |
| 20260504232903 | 64 | 0 | 0.0 | 0.0 | 0.00 | 0.00 | 0.00 | 65 | 1016.1 |
| 20260504232803 | 64 | 0 | 0.0 | 0.0 | 0.00 | 0.00 | 0.00 | 66 | 1016.0 |
| 20260504232703 | 64 | 0 | 0.0 | 0.0 | 0.00 | 0.00 | 0.00 | 66 | 1016.1 |
| 20260504232603 | 64 | 0 | 0.0 | 0.0 | 0.00 | 0.00 | 0.00 | 65 | 1016.1 |
| 20260504232503 | 64 | 0 | 0.0 | 0.0 | 0.00 | 0.00 | 0.00 | 65 | 1016.1 |
| 20260504232403 | 64 | 0 | 0.0 | 0.0 | 0.00 | 0.00 | 0.00 | 66 | 1016.1 |
| 20260504232304 | 64 | 0 | 0.0 | 0.0 | 0.00 | 0.00 | 0.00 | 65 | 1016.1 |
| 20260504232203 | 64 | 0 | 0.0 | 0.0 | 0.00 | 0.00 | 0.00 | 65 | 1016.2 |
| 20260504232103 | 64 | 0 | 0.0 | 0.0 | 0.00 | 0.00 | 0.00 | 65 | 1016.2 |
| 20260504232003 | 64 | 0 | 0.0 | 0.0 | 0.00 | 0.00 | 0.00 | 65 | 1016.2 |
| 20260504231903 | 64 | 0 | 0.0 | 2.6 | 0.00 | 0.00 | 0.00 | 65 | 1016.2 |
| 20260504231803 | 64 | 0 | 0.0 | 3.5 | 0.00 | 0.00 | 0.00 | 65 | 1016.2 |
| 20260504231703 | 64 | 348 | 0.0 | 3.5 | 0.00 | 0.00 | 0.00 | 65 | 1016.1 |
| 20260504231603 | 64 | 351 | 0.0 | 3.5 | 0.00 | 0.00 | 0.00 | 65 | 1016.2 |
| 20260504231503 | 64 | 353 | 0.0 | 3.5 | 0.00 | 0.00 | 0.00 | 65 | 1016.2 |
| 20260504231403 | 64 | 355 | 0.0 | 3.5 | 0.00 | 0.00 | 0.00 | 65 | 1016.3 |
| 20260504231003 | 64 | 337 | 0.9 | 4.3 | 0.00 | 0.00 | 0.00 | 65 | 1016.4 |
| 20260504230903 | 64 | 339 | 0.9 | 4.3 | 0.00 | 0.00 | 0.00 | 66 | 1016.4 |
| 20260504230803 | 64 | 341 | 0.9 | 4.3 | 0.00 | 0.00 | 0.00 | 66 | 1016.4 |
| 20260504230703 | 64 | 334 | 0.9 | 4.3 | 0.00 | 0.00 | 0.00 | 66 | 1016.4 |
| 20260504230603 | 64 | 334 | 0.9 | 4.3 | 0.00 | 0.00 | 0.00 | 66 | 1016.4 |
| 20260504230503 | 64 | 349 | 0.9 | 7.8 | 0.00 | 0.00 | 0.00 | 66 | 1016.4 |
| 20260504230403 | 64 | 359 | 0.9 | 7.8 | 0.00 | 0.00 | 0.00 | 66 | 1016.5 |
| 20260504230303 | 64 | 359 | 0.9 | 7.8 | 0.00 | 0.00 | 0.00 | 66 | 1016.4 |
| 20260504230203 | 64 | 359 | 0.9 | 7.8 | 0.00 | 0.00 | 0.00 | 66 | 1016.4 |
| 20260504230003 | 64 | 3 | 0.0 | 7.8 | 0.00 | 0.00 | 0.00 | 66 | 1016.4 |
| 20260504225903 | 64 | 5 | 0.0 | 7.8 | 0.00 | 0.00 | 0.00 | 66 | 1016.4 |
| 20260504225803 | 64 | 5 | 0.0 | 7.8 | 0.00 | 0.00 | 0.00 | 66 | 1016.5 |
| 20260504225703 | 64 | 15 | 0.0 | 7.8 | 0.00 | 0.00 | 0.00 | 66 | 1016.5 |
| 20260504225603 | 64 | 21 | 0.0 | 7.8 | 0.00 | 0.00 | 0.00 | 66 | 1016.5 |
| 20260504225506 | 64 | 0 | 0.0 | 5.2 | 0.00 | 0.00 | 0.00 | 66 | 1016.5 |
| 20260504225403 | 64 | 0 | 0.0 | 0.0 | 0.00 | 0.00 | 0.00 | 67 | 1016.5 |
| 20260504225304 | 64 | 0 | 0.0 | 0.0 | 0.00 | 0.00 | 0.00 | 67 | 1016.6 |
| 20260504225203 | 64 | 0 | 0.0 | 0.0 | 0.00 | 0.00 | 0.00 | 67 | 1016.6 |
| 20260504225103 | 64 | 0 | 0.0 | 0.0 | 0.00 | 0.00 | 0.00 | 67 | 1016.6 |
| 20260504225003 | 64 | 0 | 0.0 | 0.0 | 0.00 | 0.00 | 0.00 | 67 | 1016.6 |
| 20260504224903 | 64 | 0 | 0.0 | 0.0 | 0.00 | 0.00 | 0.00 | 68 | 1016.6 |
| 20260504224803 | 64 | 0 | 0.0 | 0.0 | 0.00 | 0.00 | 0.00 | 67 | 1016.6 |
| 20260504224703 | 64 | 0 | 0.0 | 0.0 | 0.00 | 0.00 | 0.00 | 67 | 1016.7 |
| 20260504224603 | 64 | 0 | 0.0 | 0.0 | 0.00 | 0.00 | 0.00 | 68 | 1016.6 |
| 20260504224503 | 64 | 0 | 0.0 | 0.0 | 0.00 | 0.00 | 0.00 | 67 | 1016.7 |
| 20260504224405 | 64 | 0 | 0.0 | 0.0 | 0.00 | 0.00 | 0.00 | 67 | 1016.7 |
| 20260504224303 | 64 | 0 | 0.0 | 0.0 | 0.00 | 0.00 | 0.00 | 67 | 1016.7 |
| 20260504224203 | 64 | 0 | 0.0 | 0.0 | 0.00 | 0.00 | 0.00 | 67 | 1016.7 |
| 20260504224103 | 64 | 0 | 0.0 | 0.0 | 0.00 | 0.00 | 0.00 | 68 | 1016.7 |
| 20260504224003 | 64 | 0 | 0.0 | 0.0 | 0.00 | 0.00 | 0.00 | 68 | 1016.7 |
| 20260504223903 | 64 | 0 | 0.0 | 0.0 | 0.00 | 0.00 | 0.00 | 68 | 1016.7 |
| 20260504223803 | 64 | 0 | 0.0 | 0.0 | 0.00 | 0.00 | 0.00 | 68 | 1016.7 |
| 20260504223703 | 64 | 0 | 0.0 | 0.0 | 0.00 | 0.00 | 0.00 | 68 | 1016.8 |
| 20260504223603 | 64 | 0 | 0.0 | 0.0 | 0.00 | 0.00 | 0.00 | 68 | 1016.8 |
| 20260504223503 | 64 | 0 | 0.0 | 0.0 | 0.00 | 0.00 | 0.00 | 68 | 1016.8 |
| 20260504223403 | 64 | 0 | 0.0 | 0.0 | 0.00 | 0.00 | 0.00 | 68 | 1016.8 |
| 20260504223304 | 64 | 33 | 0.0 | 3.5 | 0.00 | 0.00 | 0.00 | 68 | 1016.7 |
| 20260504223203 | 64 | 33 | 0.0 | 3.5 | 0.00 | 0.00 | 0.00 | 68 | 1016.7 |
| 20260504223103 | 64 | 33 | 0.9 | 3.5 | 0.00 | 0.00 | 0.00 | 68 | 1016.7 |
| 20260504223003 | 64 | 33 | 0.9 | 3.5 | 0.00 | 0.00 | 0.00 | 69 | 1016.7 |
| 20260504222903 | 64 | 33 | 0.9 | 3.5 | 0.00 | 0.00 | 0.00 | 69 | 1016.7 |
| 20260504222803 | 63 | 32 | 0.9 | 3.5 | 0.00 | 0.00 | 0.00 | 69 | 1016.7 |
| 20260504222703 | 63 | 26 | 0.9 | 4.3 | 0.00 | 0.00 | 0.00 | 69 | 1016.8 |
| 20260504222603 | 63 | 17 | 0.9 | 7.8 | 0.00 | 0.00 | 0.00 | 69 | 1016.8 |
| 20260504222503 | 63 | 11 | 0.9 | 7.8 | 0.00 | 0.00 | 0.00 | 69 | 1016.8 |
| 20260504222403 | 63 | 11 | 0.9 | 7.8 | 0.00 | 0.00 | 0.00 | 69 | 1016.8 |
| 20260504222305 | 63 | 10 | 0.9 | 7.8 | 0.00 | 0.00 | 0.00 | 69 | 1016.9 |
| 20260504222203 | 63 | 8 | 0.9 | 7.8 | 0.00 | 0.00 | 0.00 | 70 | 1016.9 |
| 20260504222103 | 63 | 11 | 0.9 | 7.8 | 0.00 | 0.00 | 0.00 | 70 | 1016.9 |
| 20260504222003 | 63 | 12 | 0.9 | 7.8 | 0.00 | 0.00 | 0.00 | 70 | 1017.0 |
| 20260504221903 | 63 | 12 | 0.9 | 7.8 | 0.00 | 0.00 | 0.00 | 70 | 1017.0 |
| 20260504221803 | 63 | 12 | 0.9 | 7.8 | 0.00 | 0.00 | 0.00 | 70 | 1016.9 |
| 20260504221703 | 62 | 10 | 0.9 | 7.8 | 0.00 | 0.00 | 0.00 | 71 | 1017.0 |
| 20260504221603 | 62 | 8 | 0.0 | 6.1 | 0.00 | 0.00 | 0.00 | 71 | 1017.0 |
| 20260504221504 | 62 | 14 | 0.0 | 6.1 | 0.00 | 0.00 | 0.00 | 71 | 1017.0 |
| 20260504221403 | 62 | 15 | 0.0 | 6.1 | 0.00 | 0.00 | 0.00 | 72 | 1017.0 |
| 20260504221303 | 62 | 15 | 0.0 | 6.1 | 0.00 | 0.00 | 0.00 | 72 | 1017.1 |
| 20260504221203 | 61 | 20 | 0.0 | 6.1 | 0.00 | 0.00 | 0.00 | 73 | 1017.2 |
| 20260504221104 | 61 | 0 | 0.0 | 6.1 | 0.00 | 0.00 | 0.00 | 73 | 1017.2 |
| 20260504221003 | 61 | 0 | 0.0 | 0.9 | 0.00 | 0.00 | 0.00 | 74 | 1017.2 |
| 20260504220903 | 61 | 0 | 0.0 | 0.9 | 0.00 | 0.00 | 0.00 | 74 | 1017.2 |
| 20260504220803 | 61 | 0 | 0.0 | 4.3 | 0.00 | 0.00 | 0.00 | 74 | 1017.2 |
| 20260504220703 | 61 | 0 | 0.0 | 4.3 | 0.00 | 0.00 | 0.00 | 74 | 1017.3 |
| 20260504220603 | 61 | 0 | 0.0 | 4.3 | 0.00 | 0.00 | 0.00 | 74 | 1017.3 |
| 20260504220503 | 60 | 0 | 0.0 | 4.3 | 0.00 | 0.00 | 0.00 | 74 | 1017.3 |
| 20260504220403 | 60 | 0 | 0.0 | 4.3 | 0.00 | 0.00 | 0.00 | 75 | 1017.2 |
| 20260504220303 | 60 | 0 | 0.0 | 4.3 | 0.00 | 0.00 | 0.00 | 75 | 1017.3 |
| 20260504220203 | 61 | 0 | 0.0 | 4.3 | 0.00 | 0.00 | 0.00 | 75 | 1017.3 |
| 20260504220020 | 61 | 0 | 0.0 | 4.3 | 0.00 | 0.00 | 0.00 | 75 | 1017.3 |
| 20260504215903 | 61 | 0 | 0.0 | 4.3 | 0.00 | 0.00 | 0.00 | 74 | 1017.3 |
| 20260504215803 | 61 | 0 | 0.0 | 4.3 | 0.00 | 0.00 | 0.00 | 75 | 1017.3 |
| 20260504215703 | 61 | 0 | 0.0 | 0.0 | 0.00 | 0.00 | 0.00 | 75 | 1017.3 |
| 20260504215603 | 61 | 0 | 0.0 | 0.0 | 0.00 | 0.00 | 0.00 | 75 | 1017.4 |
| 20260504215503 | 61 | 0 | 0.0 | 0.0 | 0.00 | 0.00 | 0.00 | 75 | 1017.4 |
| 20260504215403 | 61 | 0 | 0.0 | 0.0 | 0.00 | 0.00 | 0.00 | 75 | 1017.4 |
| 20260504215304 | 61 | 0 | 0.0 | 0.0 | 0.00 | 0.00 | 0.00 | 75 | 1017.4 |
| 20260504215203 | 61 | 0 | 0.0 | 0.0 | 0.00 | 0.00 | 0.00 | 75 | 1017.4 |
| 20260504215103 | 61 | 0 | 0.0 | 0.0 | 0.00 | 0.00 | 0.00 | 75 | 1017.5 |
| 20260504215003 | 61 | 0 | 0.0 | 0.0 | 0.00 | 0.00 | 0.00 | 75 | 1017.6 |
| 20260504214903 | 61 | 0 | 0.0 | 0.0 | 0.00 | 0.00 | 0.00 | 75 | 1017.6 |
| 20260504214804 | 61 | 0 | 0.0 | 0.0 | 0.00 | 0.00 | 0.00 | 75 | 1017.6 |
| 20260504214703 | 61 | 0 | 0.0 | 0.0 | 0.00 | 0.00 | 0.00 | 75 | 1017.6 |
| 20260504214603 | 61 | 0 | 0.0 | 0.0 | 0.00 | 0.00 | 0.00 | 75 | 1017.6 |
| 20260504214504 | 61 | 0 | 0.0 | 0.0 | 0.00 | 0.00 | 0.00 | 75 | 1017.7 |
| 20260504214403 | 61 | 0 | 0.0 | 0.0 | 0.00 | 0.00 | 0.00 | 75 | 1017.6 |
| 20260504214303 | 61 | 0 | 0.0 | 0.0 | 0.00 | 0.00 | 0.00 | 75 | 1017.7 |
| 20260504214203 | 61 | 0 | 0.0 | 0.0 | 0.00 | 0.00 | 0.00 | 76 | 1017.7 |
| 20260504214103 | 61 | 0 | 0.0 | 0.0 | 0.00 | 0.00 | 0.00 | 75 | 1017.7 |
| 20260504214003 | 61 | 0 | 0.0 | 0.0 | 0.00 | 0.00 | 0.00 | 75 | 1017.7 |
| 20260504213908 | 61 | 0 | 0.0 | 0.0 | 0.00 | 0.00 | 0.00 | 75 | 1017.7 |
| 20260504213803 | 61 | 0 | 0.0 | 0.0 | 0.00 | 0.00 | 0.00 | 75 | 1017.7 |
| 20260504213703 | 61 | 0 | 0.0 | 0.0 | 0.00 | 0.00 | 0.00 | 75 | 1017.8 |
| 20260504213603 | 61 | 0 | 0.0 | 0.0 | 0.00 | 0.00 | 0.00 | 75 | 1017.8 |
| 20260504213503 | 61 | 0 | 0.0 | 0.0 | 0.00 | 0.00 | 0.00 | 75 | 1017.7 |
| 20260504213403 | 61 | 0 | 0.0 | 0.0 | 0.00 | 0.00 | 0.00 | 75 | 1017.7 |
| 20260504213303 | 61 | 0 | 0.0 | 0.0 | 0.00 | 0.00 | 0.00 | 75 | 1017.7 |
| 20260504213203 | 61 | 0 | 0.0 | 0.0 | 0.00 | 0.00 | 0.00 | 75 | 1017.7 |
| 20260504213103 | 61 | 0 | 0.0 | 0.0 | 0.00 | 0.00 | 0.00 | 75 | 1017.8 |
| 20260504213004 | 61 | 0 | 0.0 | 0.0 | 0.00 | 0.00 | 0.00 | 75 | 1017.7 |
| 20260504212903 | 61 | 0 | 0.0 | 0.0 | 0.00 | 0.00 | 0.00 | 76 | 1017.8 |
| 20260504212803 | 61 | 0 | 0.0 | 0.0 | 0.00 | 0.00 | 0.00 | 76 | 1017.7 |
| 20260504212704 | 61 | 0 | 0.0 | 0.0 | 0.00 | 0.00 | 0.00 | 76 | 1017.7 |
| 20260504212603 | 61 | 0 | 0.0 | 0.0 | 0.00 | 0.00 | 0.00 | 76 | 1017.7 |
| 20260504212503 | 61 | 0 | 0.0 | 0.0 | 0.00 | 0.00 | 0.00 | 76 | 1017.8 |
| 20260504212403 | 61 | 0 | 0.0 | 0.0 | 0.00 | 0.00 | 0.00 | 76 | 1017.8 |
| 20260504212304 | 61 | 0 | 0.0 | 0.0 | 0.00 | 0.00 | 0.00 | 76 | 1017.8 |
| 20260504212203 | 61 | 0 | 0.0 | 0.0 | 0.00 | 0.00 | 0.00 | 76 | 1017.8 |
| 20260504212103 | 61 | 0 | 0.0 | 0.0 | 0.00 | 0.00 | 0.00 | 76 | 1017.9 |
| 20260504212003 | 61 | 0 | 0.0 | 0.0 | 0.00 | 0.00 | 0.00 | 76 | 1017.9 |
| 20260504211903 | 61 | 0 | 0.0 | 0.0 | 0.00 | 0.00 | 0.00 | 76 | 1017.9 |
| 20260504211803 | 61 | 0 | 0.0 | 0.0 | 0.00 | 0.00 | 0.00 | 76 | 1018.0 |
| 20260504211703 | 61 | 0 | 0.0 | 0.0 | 0.00 | 0.00 | 0.00 | 76 | 1017.9 |
| 20260504211603 | 61 | 0 | 0.0 | 0.0 | 0.00 | 0.00 | 0.00 | 76 | 1017.9 |
| 20260504211503 | 61 | 0 | 0.0 | 0.0 | 0.00 | 0.00 | 0.00 | 76 | 1017.9 |
| 20260504211403 | 61 | 0 | 0.0 | 0.0 | 0.00 | 0.00 | 0.00 | 75 | 1017.9 |
| 20260504211303 | 61 | 0 | 0.0 | 0.0 | 0.00 | 0.00 | 0.00 | 75 | 1017.9 |
| 20260504211203 | 61 | 0 | 0.0 | 0.0 | 0.00 | 0.00 | 0.00 | 75 | 1017.9 |
| 20260504211103 | 61 | 0 | 0.0 | 0.0 | 0.00 | 0.00 | 0.00 | 75 | 1017.9 |
| 20260504211003 | 61 | 0 | 0.0 | 0.0 | 0.00 | 0.00 | 0.00 | 75 | 1017.9 |
| 20260504210903 | 61 | 0 | 0.0 | 0.0 | 0.00 | 0.00 | 0.00 | 75 | 1017.9 |
| 20260504210803 | 61 | 0 | 0.0 | 0.0 | 0.00 | 0.00 | 0.00 | 75 | 1017.9 |
| 20260504210703 | 61 | 0 | 0.0 | 0.0 | 0.00 | 0.00 | 0.00 | 75 | 1017.9 |
| 20260504210603 | 61 | 0 | 0.0 | 0.0 | 0.00 | 0.00 | 0.00 | 75 | 1017.9 |
| 20260504210503 | 61 | 0 | 0.0 | 0.0 | 0.00 | 0.00 | 0.00 | 75 | 1017.9 |
| 20260504210403 | 61 | 0 | 0.0 | 0.0 | 0.00 | 0.00 | 0.00 | 75 | 1017.9 |
| 20260504210303 | 61 | 0 | 0.0 | 0.0 | 0.00 | 0.00 | 0.00 | 75 | 1018.0 |
| 20260504210203 | 61 | 0 | 0.0 | 0.0 | 0.00 | 0.00 | 0.00 | 75 | 1017.9 |
| 20260504210004 | 61 | 0 | 0.0 | 0.0 | 0.00 | 0.00 | 0.00 | 75 | 1018.0 |
| 20260504205903 | 61 | 0 | 0.0 | 0.0 | 0.00 | 0.00 | 0.00 | 75 | 1017.9 |
| 20260504205803 | 61 | 0 | 0.0 | 0.0 | 0.00 | 0.00 | 0.00 | 75 | 1017.9 |
| 20260504205703 | 61 | 0 | 0.0 | 0.0 | 0.00 | 0.00 | 0.00 | 75 | 1017.9 |
| 20260504205603 | 61 | 0 | 0.0 | 0.0 | 0.00 | 0.00 | 0.00 | 75 | 1017.9 |
| 20260504205503 | 61 | 0 | 0.0 | 0.0 | 0.00 | 0.00 | 0.00 | 74 | 1018.0 |
| 20260504205403 | 61 | 0 | 0.0 | 0.0 | 0.00 | 0.00 | 0.00 | 74 | 1017.9 |
| 20260504205304 | 61 | 0 | 0.0 | 0.0 | 0.00 | 0.00 | 0.00 | 74 | 1017.9 |
| 20260504205203 | 61 | 0 | 0.0 | 0.0 | 0.00 | 0.00 | 0.00 | 74 | 1018.0 |
| 20260504205103 | 61 | 0 | 0.0 | 0.0 | 0.00 | 0.00 | 0.00 | 74 | 1017.9 |
| 20260504205003 | 61 | 0 | 0.0 | 0.0 | 0.00 | 0.00 | 0.00 | 74 | 1017.9 |
| 20260504204904 | 61 | 0 | 0.0 | 0.0 | 0.00 | 0.00 | 0.00 | 74 | 1018.0 |
| 20260504204803 | 62 | 0 | 0.0 | 0.0 | 0.00 | 0.00 | 0.00 | 74 | 1018.0 |
| 20260504204703 | 62 | 0 | 0.0 | 0.0 | 0.00 | 0.00 | 0.00 | 74 | 1017.9 |
| 20260504204603 | 62 | 0 | 0.0 | 0.0 | 0.00 | 0.00 | 0.00 | 73 | 1017.9 |
| 20260504204503 | 62 | 0 | 0.0 | 0.0 | 0.00 | 0.00 | 0.00 | 73 | 1017.9 |
| 20260504204403 | 62 | 0 | 0.0 | 0.0 | 0.00 | 0.00 | 0.00 | 73 | 1018.0 |
| 20260504204303 | 62 | 0 | 0.0 | 0.0 | 0.00 | 0.00 | 0.00 | 73 | 1017.9 |
| 20260504204203 | 62 | 0 | 0.0 | 0.0 | 0.00 | 0.00 | 0.00 | 73 | 1017.9 |
| 20260504204103 | 62 | 0 | 0.0 | 0.0 | 0.00 | 0.00 | 0.00 | 73 | 1017.9 |
| 20260504204003 | 62 | 0 | 0.0 | 0.0 | 0.00 | 0.00 | 0.00 | 72 | 1017.9 |
| 20260504203903 | 62 | 0 | 0.0 | 0.0 | 0.00 | 0.00 | 0.00 | 73 | 1017.9 |
| 20260504203803 | 62 | 0 | 0.0 | 0.0 | 0.00 | 0.00 | 0.00 | 73 | 1017.9 |
| 20260504203704 | 62 | 0 | 0.0 | 0.0 | 0.00 | 0.00 | 0.00 | 73 | 1017.9 |
| 20260504203603 | 62 | 0 | 0.0 | 0.0 | 0.00 | 0.00 | 0.00 | 73 | 1017.9 |
| 20260504203503 | 61 | 0 | 0.0 | 0.0 | 0.00 | 0.00 | 0.00 | 72 | 1017.9 |
| 20260504203403 | 61 | 0 | 0.0 | 0.0 | 0.00 | 0.00 | 0.00 | 72 | 1017.9 |
| 20260504203303 | 61 | 0 | 0.0 | 0.0 | 0.00 | 0.00 | 0.00 | 73 | 1017.9 |
| 20260504203203 | 61 | 0 | 0.0 | 0.0 | 0.00 | 0.00 | 0.00 | 74 | 1017.9 |
| 20260504203103 | 61 | 0 | 0.0 | 0.0 | 0.00 | 0.00 | 0.00 | 74 | 1017.9 |
| 20260504203003 | 61 | 0 | 0.0 | 0.0 | 0.00 | 0.00 | 0.00 | 74 | 1017.9 |
| 20260504202903 | 61 | 0 | 0.0 | 0.0 | 0.00 | 0.00 | 0.00 | 74 | 1017.9 |
| 20260504202803 | 61 | 0 | 0.0 | 0.0 | 0.00 | 0.00 | 0.00 | 74 | 1017.8 |
| 20260504202703 | 61 | 0 | 0.0 | 0.0 | 0.00 | 0.00 | 0.00 | 74 | 1017.8 |
| 20260504202603 | 61 | 0 | 0.0 | 0.0 | 0.00 | 0.00 | 0.00 | 73 | 1017.9 |
| 20260504202503 | 61 | 0 | 0.0 | 0.0 | 0.00 | 0.00 | 0.00 | 73 | 1017.8 |
| 20260504202403 | 61 | 0 | 0.0 | 0.0 | 0.00 | 0.00 | 0.00 | 74 | 1017.9 |
| 20260504202304 | 61 | 0 | 0.0 | 0.0 | 0.00 | 0.00 | 0.00 | 73 | 1017.8 |
| 20260504202203 | 61 | 0 | 0.0 | 0.0 | 0.00 | 0.00 | 0.00 | 74 | 1017.8 |
| 20260504202103 | 61 | 0 | 0.0 | 0.0 | 0.00 | 0.00 | 0.00 | 73 | 1017.8 |
| 20260504202003 | 61 | 0 | 0.0 | 0.0 | 0.00 | 0.00 | 0.00 | 74 | 1017.8 |
| 20260504201903 | 61 | 0 | 0.0 | 0.0 | 0.00 | 0.00 | 0.00 | 73 | 1017.8 |
| 20260504201803 | 61 | 0 | 0.0 | 0.0 | 0.00 | 0.00 | 0.00 | 74 | 1017.8 |
| 20260504201703 | 61 | 0 | 0.0 | 0.0 | 0.00 | 0.00 | 0.00 | 74 | 1017.8 |
| 20260504201603 | 61 | 0 | 0.0 | 0.0 | 0.00 | 0.00 | 0.00 | 73 | 1017.7 |
| 20260504201503 | 61 | 0 | 0.0 | 0.0 | 0.00 | 0.00 | 0.00 | 74 | 1017.8 |
| 20260504201403 | 61 | 0 | 0.0 | 0.0 | 0.00 | 0.00 | 0.00 | 75 | 1017.8 |
| 20260504201303 | 61 | 0 | 0.0 | 0.0 | 0.00 | 0.00 | 0.00 | 74 | 1017.8 |
| 20260504201204 | 61 | 0 | 0.0 | 0.0 | 0.00 | 0.00 | 0.00 | 74 | 1017.8 |
| 20260504201103 | 61 | 0 | 0.0 | 0.0 | 0.00 | 0.00 | 0.00 | 74 | 1017.8 |
| 20260504201003 | 61 | 0 | 0.0 | 0.0 | 0.00 | 0.00 | 0.00 | 75 | 1017.9 |
| 20260504200903 | 61 | 0 | 0.0 | 0.0 | 0.00 | 0.00 | 0.00 | 75 | 1017.9 |
| 20260504200803 | 61 | 0 | 0.0 | 0.0 | 0.00 | 0.00 | 0.00 | 75 | 1017.9 |
| 20260504200703 | 61 | 0 | 0.0 | 0.0 | 0.00 | 0.00 | 0.00 | 75 | 1017.9 |
| 20260504200603 | 61 | 0 | 0.0 | 0.0 | 0.00 | 0.00 | 0.00 | 74 | 1017.9 |
| 20260504200503 | 61 | 0 | 0.0 | 0.0 | 0.00 | 0.00 | 0.00 | 75 | 1017.9 |
| 20260504200403 | 61 | 0 | 0.0 | 0.0 | 0.00 | 0.00 | 0.00 | 74 | 1017.9 |
| 20260504200303 | 61 | 0 | 0.0 | 0.0 | 0.00 | 0.00 | 0.00 | 74 | 1017.9 |
| 20260504200203 | 61 | 0 | 0.0 | 0.0 | 0.00 | 0.00 | 0.00 | 74 | 1017.9 |
| 20260504200104 | 61 | 0 | 0.0 | 0.0 | 0.00 | 0.00 | 0.00 | 75 | 1017.9 |
| 20260504200003 | 61 | 0 | 0.0 | 0.0 | 0.00 | 0.00 | 0.00 | 75 | 1017.9 |
| 20260504195903 | 61 | 0 | 0.0 | 0.0 | 0.00 | 0.00 | 0.00 | 75 | 1017.8 |
| 20260504195803 | 61 | 0 | 0.0 | 0.0 | 0.00 | 0.00 | 0.00 | 75 | 1017.9 |
| 20260504195703 | 62 | 0 | 0.0 | 0.0 | 0.00 | 0.00 | 0.00 | 75 | 1017.9 |
| 20260504195603 | 62 | 0 | 0.0 | 0.0 | 0.00 | 0.00 | 0.00 | 74 | 1017.9 |
| 20260504195503 | 62 | 0 | 0.0 | 0.0 | 0.00 | 0.00 | 0.00 | 74 | 1017.8 |
| 20260504195403 | 62 | 0 | 0.0 | 0.0 | 0.00 | 0.00 | 0.00 | 74 | 1017.8 |
| 20260504195304 | 62 | 0 | 0.0 | 0.0 | 0.00 | 0.00 | 0.00 | 75 | 1017.9 |
| 20260504195203 | 62 | 0 | 0.0 | 0.0 | 0.00 | 0.00 | 0.00 | 75 | 1017.9 |
| 20260504195103 | 62 | 0 | 0.0 | 0.0 | 0.00 | 0.00 | 0.00 | 74 | 1017.8 |
| 20260504195003 | 62 | 0 | 0.0 | 0.0 | 0.00 | 0.00 | 0.00 | 74 | 1017.8 |
| 20260504194903 | 61 | 0 | 0.0 | 0.0 | 0.00 | 0.00 | 0.00 | 75 | 1017.9 |
| 20260504194803 | 62 | 0 | 0.0 | 0.0 | 0.00 | 0.00 | 0.00 | 74 | 1017.9 |
| 20260504194703 | 62 | 0 | 0.0 | 0.0 | 0.00 | 0.00 | 0.00 | 74 | 1017.9 |
| 20260504194603 | 62 | 0 | 0.0 | 0.0 | 0.00 | 0.00 | 0.00 | 75 | 1017.9 |
| 20260504194503 | 62 | 0 | 0.0 | 0.0 | 0.00 | 0.00 | 0.00 | 75 | 1017.9 |
| 20260504194403 | 62 | 0 | 0.0 | 0.0 | 0.00 | 0.00 | 0.00 | 75 | 1017.8 |
| 20260504194303 | 62 | 0 | 0.0 | 0.0 | 0.00 | 0.00 | 0.00 | 75 | 1017.8 |
| 20260504194203 | 62 | 0 | 0.0 | 0.0 | 0.00 | 0.00 | 0.00 | 75 | 1017.8 |
| 20260504194103 | 62 | 0 | 0.0 | 0.0 | 0.00 | 0.00 | 0.00 | 75 | 1017.8 |
| 20260504194003 | 62 | 0 | 0.0 | 0.0 | 0.00 | 0.00 | 0.00 | 75 | 1017.8 |
| 20260504193903 | 62 | 0 | 0.0 | 0.0 | 0.00 | 0.00 | 0.00 | 75 | 1017.8 |
| 20260504193803 | 62 | 0 | 0.0 | 0.0 | 0.00 | 0.00 | 0.00 | 75 | 1017.9 |
| 20260504193703 | 62 | 0 | 0.0 | 0.0 | 0.00 | 0.00 | 0.00 | 75 | 1017.8 |
| 20260504193603 | 62 | 0 | 0.0 | 0.0 | 0.00 | 0.00 | 0.00 | 75 | 1017.8 |
| 20260504193503 | 62 | 0 | 0.0 | 0.0 | 0.00 | 0.00 | 0.00 | 75 | 1017.7 |
| 20260504193403 | 62 | 0 | 0.0 | 0.0 | 0.00 | 0.00 | 0.00 | 75 | 1017.8 |
| 20260504193303 | 62 | 0 | 0.0 | 0.0 | 0.00 | 0.00 | 0.00 | 75 | 1017.8 |
| 20260504193203 | 62 | 0 | 0.0 | 0.0 | 0.00 | 0.00 | 0.00 | 75 | 1017.8 |
| 20260504193103 | 62 | 0 | 0.0 | 0.0 | 0.00 | 0.00 | 0.00 | 75 | 1017.8 |
| 20260504193003 | 62 | 0 | 0.0 | 0.0 | 0.00 | 0.00 | 0.00 | 74 | 1017.9 |
| 20260504192904 | 62 | 0 | 0.0 | 0.0 | 0.00 | 0.00 | 0.00 | 74 | 1017.9 |
| 20260504192803 | 62 | 0 | 0.0 | 0.0 | 0.00 | 0.00 | 0.00 | 74 | 1017.9 |
| 20260504192603 | 62 | 0 | 0.0 | 0.0 | 0.00 | 0.00 | 0.00 | 75 | 1017.9 |
| 20260504192503 | 62 | 0 | 0.0 | 0.0 | 0.00 | 0.00 | 0.00 | 74 | 1017.9 |
| 20260504192403 | 62 | 0 | 0.0 | 0.0 | 0.00 | 0.00 | 0.00 | 74 | 1017.9 |
| 20260504192304 | 62 | 0 | 0.0 | 0.0 | 0.00 | 0.00 | 0.00 | 74 | 1017.9 |
| 20260504192203 | 62 | 0 | 0.0 | 0.0 | 0.00 | 0.00 | 0.00 | 74 | 1017.9 |
| 20260504192103 | 62 | 0 | 0.0 | 0.0 | 0.00 | 0.00 | 0.00 | 74 | 1017.9 |
| 20260504192003 | 62 | 0 | 0.0 | 0.0 | 0.00 | 0.00 | 0.00 | 74 | 1017.9 |
| 20260504191903 | 62 | 0 | 0.0 | 0.0 | 0.00 | 0.00 | 0.00 | 74 | 1017.9 |
| 20260504191803 | 62 | 0 | 0.0 | 0.0 | 0.00 | 0.00 | 0.00 | 74 | 1017.9 |
| 20260504191703 | 62 | 0 | 0.0 | 0.0 | 0.00 | 0.00 | 0.00 | 73 | 1017.9 |
| 20260504191603 | 62 | 0 | 0.0 | 0.0 | 0.00 | 0.00 | 0.00 | 73 | 1017.9 |
| 20260504191504 | 62 | 0 | 0.0 | 0.0 | 0.00 | 0.00 | 0.00 | 74 | 1017.9 |
| 20260504191403 | 62 | 0 | 0.0 | 0.0 | 0.00 | 0.00 | 0.00 | 74 | 1017.9 |
| 20260504191303 | 62 | 0 | 0.0 | 0.0 | 0.00 | 0.00 | 0.00 | 73 | 1017.9 |
| 20260504191203 | 62 | 0 | 0.0 | 0.0 | 0.00 | 0.00 | 0.00 | 73 | 1017.9 |
| 20260504191103 | 62 | 0 | 0.0 | 0.0 | 0.00 | 0.00 | 0.00 | 73 | 1017.9 |
| 20260504191003 | 62 | 0 | 0.0 | 0.0 | 0.00 | 0.00 | 0.00 | 73 | 1017.9 |
| 20260504190903 | 62 | 0 | 0.0 | 0.0 | 0.00 | 0.00 | 0.00 | 73 | 1017.9 |
| 20260504190803 | 62 | 0 | 0.0 | 0.0 | 0.00 | 0.00 | 0.00 | 73 | 1017.8 |
| 20260504190703 | 62 | 0 | 0.0 | 0.0 | 0.00 | 0.00 | 0.00 | 73 | 1017.9 |
| 20260504190603 | 62 | 0 | 0.0 | 0.0 | 0.00 | 0.00 | 0.00 | 73 | 1017.9 |
| 20260504190504 | 62 | 0 | 0.0 | 0.0 | 0.00 | 0.00 | 0.00 | 73 | 1017.9 |
| 20260504190403 | 62 | 0 | 0.0 | 0.0 | 0.00 | 0.00 | 0.00 | 73 | 1017.8 |
| 20260504190303 | 62 | 0 | 0.0 | 0.0 | 0.00 | 0.00 | 0.00 | 73 | 1017.8 |
| 20260504190203 | 62 | 0 | 0.0 | 0.0 | 0.00 | 0.00 | 0.00 | 72 | 1017.8 |
| 20260504190004 | 62 | 0 | 0.0 | 0.0 | 0.00 | 0.00 | 0.00 | 73 | 1017.8 |
| 20260504185903 | 63 | 0 | 0.0 | 0.0 | 0.00 | 0.00 | 0.00 | 73 | 1017.8 |
| 20260504185803 | 63 | 0 | 0.0 | 0.0 | 0.00 | 0.00 | 0.00 | 72 | 1017.8 |
| 20260504185703 | 63 | 0 | 0.0 | 0.0 | 0.00 | 0.00 | 0.00 | 72 | 1017.8 |
| 20260504185603 | 63 | 0 | 0.0 | 0.0 | 0.00 | 0.00 | 0.00 | 72 | 1017.9 |
| 20260504185503 | 63 | 0 | 0.0 | 0.0 | 0.00 | 0.00 | 0.00 | 72 | 1017.8 |
| 20260504185403 | 63 | 0 | 0.0 | 0.9 | 0.00 | 0.00 | 0.00 | 72 | 1017.8 |
| 20260504185304 | 63 | 0 | 0.0 | 0.9 | 0.00 | 0.00 | 0.00 | 72 | 1017.8 |
| 20260504185203 | 63 | 0 | 0.0 | 0.9 | 0.00 | 0.00 | 0.00 | 72 | 1017.9 |
| 20260504185103 | 63 | 0 | 0.0 | 2.6 | 0.00 | 0.00 | 0.00 | 71 | 1017.8 |
| 20260504185003 | 63 | 0 | 0.0 | 2.6 | 0.00 | 0.00 | 0.00 | 71 | 1017.8 |
| 20260504184903 | 63 | 0 | 0.0 | 2.6 | 0.00 | 0.00 | 0.00 | 71 | 1017.8 |
| 20260504184803 | 63 | 0 | 0.0 | 2.6 | 0.00 | 0.00 | 0.00 | 71 | 1017.8 |
| 20260504184703 | 63 | 0 | 0.0 | 2.6 | 0.00 | 0.00 | 0.00 | 70 | 1017.8 |
| 20260504184603 | 63 | 0 | 0.0 | 2.6 | 0.00 | 0.00 | 0.00 | 71 | 1017.8 |
| 20260504184504 | 63 | 0 | 0.0 | 2.6 | 0.00 | 0.00 | 0.00 | 70 | 1017.7 |
| 20260504184403 | 64 | 0 | 0.0 | 2.6 | 0.00 | 0.00 | 0.00 | 70 | 1017.7 |
| 20260504184303 | 64 | 0 | 0.0 | 2.6 | 0.00 | 0.00 | 0.00 | 70 | 1017.7 |
| 20260504184203 | 64 | 0 | 0.0 | 2.6 | 0.00 | 0.00 | 0.00 | 69 | 1017.7 |
| 20260504184103 | 64 | 0 | 0.0 | 2.6 | 0.00 | 0.00 | 0.00 | 69 | 1017.7 |
| 20260504184004 | 64 | 0 | 0.0 | 1.7 | 0.00 | 0.00 | 0.00 | 69 | 1017.7 |
| 20260504183903 | 64 | 0 | 0.0 | 1.7 | 0.00 | 0.00 | 0.00 | 69 | 1017.7 |
| 20260504183803 | 64 | 0 | 0.0 | 1.7 | 0.00 | 0.00 | 0.00 | 68 | 1017.7 |
| 20260504183703 | 64 | 0 | 0.0 | 0.9 | 0.00 | 0.00 | 0.00 | 68 | 1017.7 |
| 20260504183603 | 64 | 0 | 0.0 | 0.9 | 0.00 | 0.00 | 0.00 | 67 | 1017.7 |
| 20260504183503 | 64 | 0 | 0.0 | 0.9 | 0.00 | 0.00 | 0.00 | 67 | 1017.6 |
| 20260504183403 | 64 | 0 | 0.0 | 0.9 | 0.00 | 0.00 | 0.00 | 67 | 1017.6 |
| 20260504183303 | 64 | 0 | 0.0 | 0.9 | 0.00 | 0.00 | 0.00 | 67 | 1017.7 |
| 20260504183203 | 64 | 0 | 0.0 | 0.0 | 0.00 | 0.00 | 0.00 | 67 | 1017.7 |
| 20260504183103 | 64 | 0 | 0.0 | 0.0 | 0.00 | 0.00 | 0.00 | 67 | 1017.6 |
| 20260504183003 | 64 | 0 | 0.0 | 0.0 | 0.00 | 0.00 | 0.00 | 67 | 1017.6 |
| 20260504182903 | 64 | 0 | 0.0 | 2.6 | 0.00 | 0.00 | 0.00 | 67 | 1017.5 |
| 20260504182803 | 64 | 0 | 0.0 | 2.6 | 0.00 | 0.00 | 0.00 | 69 | 1017.6 |
| 20260504182703 | 64 | 0 | 0.0 | 2.6 | 0.00 | 0.00 | 0.00 | 69 | 1017.6 |
| 20260504182603 | 64 | 0 | 0.0 | 2.6 | 0.00 | 0.00 | 0.00 | 69 | 1017.6 |
| 20260504182503 | 64 | 0 | 0.0 | 2.6 | 0.00 | 0.00 | 0.00 | 69 | 1017.5 |
| 20260504182403 | 64 | 0 | 0.0 | 2.6 | 0.00 | 0.00 | 0.00 | 69 | 1017.5 |
| 20260504182304 | 64 | 0 | 0.0 | 2.6 | 0.00 | 0.00 | 0.00 | 69 | 1017.5 |
| 20260504182203 | 64 | 0 | 0.0 | 2.6 | 0.00 | 0.00 | 0.00 | 68 | 1017.5 |
| 20260504182103 | 64 | 0 | 0.0 | 2.6 | 0.00 | 0.00 | 0.00 | 68 | 1017.4 |
| 20260504182003 | 64 | 0 | 0.0 | 2.6 | 0.00 | 0.00 | 0.00 | 68 | 1017.3 |
| 20260504181903 | 64 | 0 | 0.0 | 0.0 | 0.00 | 0.00 | 0.00 | 68 | 1017.4 |
| 20260504181803 | 64 | 0 | 0.0 | 0.0 | 0.00 | 0.00 | 0.00 | 68 | 1017.4 |
| 20260504181703 | 64 | 0 | 0.0 | 0.0 | 0.00 | 0.00 | 0.00 | 68 | 1017.4 |
| 20260504181603 | 64 | 0 | 0.0 | 0.0 | 0.00 | 0.00 | 0.00 | 68 | 1017.4 |
| 20260504181503 | 64 | 0 | 0.0 | 0.0 | 0.00 | 0.00 | 0.00 | 69 | 1017.4 |
| 20260504181403 | 65 | 0 | 0.0 | 0.0 | 0.00 | 0.00 | 0.00 | 69 | 1017.4 |
| 20260504181303 | 65 | 0 | 0.0 | 0.0 | 0.00 | 0.00 | 0.00 | 69 | 1017.5 |
| 20260504181203 | 65 | 0 | 0.0 | 0.0 | 0.00 | 0.00 | 0.00 | 69 | 1017.5 |
| 20260504181103 | 65 | 0 | 0.0 | 0.0 | 0.00 | 0.00 | 0.00 | 69 | 1017.5 |
| 20260504181003 | 65 | 0 | 0.0 | 0.0 | 0.00 | 0.00 | 0.00 | 68 | 1017.5 |
| 20260504180903 | 65 | 0 | 0.0 | 0.0 | 0.00 | 0.00 | 0.00 | 68 | 1017.5 |
| 20260504180804 | 65 | 0 | 0.9 | 0.0 | 0.00 | 0.00 | 0.00 | 68 | 1017.5 |
| 20260504180703 | 65 | 226 | 0.9 | 4.3 | 0.00 | 0.00 | 0.00 | 68 | 1017.5 |
| 20260504180603 | 65 | 223 | 0.9 | 4.3 | 0.00 | 0.00 | 0.00 | 68 | 1017.5 |
| 20260504180504 | 65 | 223 | 0.9 | 4.3 | 0.00 | 0.00 | 0.00 | 68 | 1017.4 |
| 20260504180403 | 65 | 213 | 0.9 | 4.3 | 0.00 | 0.00 | 0.00 | 66 | 1017.5 |
| 20260504180303 | 65 | 205 | 0.9 | 4.3 | 0.00 | 0.00 | 0.00 | 66 | 1017.5 |
| 20260504180204 | 65 | 202 | 0.9 | 4.3 | 0.00 | 0.00 | 0.00 | 66 | 1017.4 |
| 20260504180103 | 65 | 202 | 1.7 | 4.3 | 0.00 | 0.00 | 0.00 | 67 | 1017.4 |
| 20260504180005 | 65 | 201 | 1.7 | 4.3 | 0.00 | 0.00 | 0.00 | 68 | 1017.4 |
| 20260504175903 | 65 | 199 | 1.7 | 4.3 | 0.00 | 0.00 | 0.00 | 69 | 1017.4 |
| 20260504175803 | 65 | 200 | 1.7 | 4.3 | 0.00 | 0.00 | 0.00 | 69 | 1017.5 |
| 20260504175704 | 65 | 200 | 2.6 | 3.5 | 0.00 | 0.00 | 0.00 | 69 | 1017.5 |
| 20260504175603 | 65 | 201 | 2.6 | 4.3 | 0.00 | 0.00 | 0.00 | 70 | 1017.4 |
| 20260504175504 | 65 | 207 | 2.6 | 9.6 | 0.00 | 0.00 | 0.00 | 70 | 1017.4 |
| 20260504175403 | 65 | 206 | 2.6 | 9.6 | 0.00 | 0.00 | 0.00 | 71 | 1017.4 |
| 20260504175304 | 65 | 210 | 3.5 | 9.6 | 0.00 | 0.00 | 0.00 | 72 | 1017.5 |
| 20260504175203 | 65 | 214 | 3.5 | 9.6 | 0.00 | 0.00 | 0.00 | 72 | 1017.5 |
| 20260504175103 | 65 | 212 | 3.5 | 9.6 | 0.00 | 0.00 | 0.00 | 72 | 1017.5 |
| 20260504175003 | 65 | 211 | 3.5 | 9.6 | 0.00 | 0.00 | 0.00 | 71 | 1017.5 |
| 20260504174903 | 65 | 213 | 3.5 | 9.6 | 0.00 | 0.00 | 0.00 | 71 | 1017.5 |
| 20260504174803 | 65 | 215 | 3.5 | 9.6 | 0.00 | 0.00 | 0.00 | 71 | 1017.4 |
| 20260504174703 | 65 | 218 | 3.5 | 9.6 | 0.00 | 0.00 | 0.00 | 71 | 1017.5 |
| 20260504174603 | 65 | 219 | 3.5 | 9.6 | 0.00 | 0.00 | 0.00 | 71 | 1017.5 |
| 20260504174503 | 65 | 219 | 3.5 | 9.6 | 0.00 | 0.00 | 0.00 | 71 | 1017.5 |
| 20260504174403 | 65 | 221 | 3.5 | 9.6 | 0.00 | 0.00 | 0.00 | 71 | 1017.5 |
| 20260504174303 | 65 | 222 | 3.5 | 9.6 | 0.00 | 0.00 | 0.00 | 71 | 1017.5 |
| 20260504174203 | 65 | 222 | 3.5 | 8.7 | 0.00 | 0.00 | 0.00 | 72 | 1017.5 |
| 20260504174103 | 65 | 224 | 4.3 | 8.7 | 0.00 | 0.00 | 0.00 | 73 | 1017.5 |
| 20260504174003 | 65 | 225 | 4.3 | 8.7 | 0.00 | 0.00 | 0.00 | 73 | 1017.5 |
| 20260504173903 | 65 | 225 | 4.3 | 8.7 | 0.00 | 0.00 | 0.00 | 73 | 1017.6 |
| 20260504173803 | 65 | 224 | 4.3 | 8.7 | 0.00 | 0.00 | 0.00 | 73 | 1017.6 |
| 20260504173703 | 65 | 221 | 4.3 | 8.7 | 0.00 | 0.00 | 0.00 | 73 | 1017.6 |
| 20260504173603 | 65 | 221 | 4.3 | 8.7 | 0.00 | 0.00 | 0.00 | 72 | 1017.7 |
| 20260504173503 | 65 | 221 | 4.3 | 8.7 | 0.00 | 0.00 | 0.00 | 72 | 1017.7 |
| 20260504173403 | 65 | 222 | 4.3 | 8.7 | 0.00 | 0.00 | 0.00 | 72 | 1017.7 |
| 20260504173303 | 65 | 222 | 5.2 | 8.7 | 0.00 | 0.00 | 0.00 | 72 | 1017.7 |
| 20260504173203 | 65 | 222 | 5.2 | 8.7 | 0.00 | 0.00 | 0.00 | 72 | 1017.7 |
| 20260504173103 | 65 | 221 | 5.2 | 8.7 | 0.00 | 0.00 | 0.00 | 73 | 1017.7 |
| 20260504173003 | 65 | 223 | 5.2 | 8.7 | 0.00 | 0.00 | 0.00 | 73 | 1017.8 |
| 20260504172903 | 65 | 221 | 5.2 | 8.7 | 0.00 | 0.00 | 0.00 | 73 | 1017.8 |
| 20260504172803 | 65 | 222 | 5.2 | 10.4 | 0.00 | 0.00 | 0.00 | 73 | 1017.8 |
| 20260504172703 | 65 | 223 | 5.2 | 10.4 | 0.00 | 0.00 | 0.00 | 73 | 1017.8 |
| 20260504172603 | 65 | 223 | 5.2 | 10.4 | 0.00 | 0.00 | 0.00 | 73 | 1017.8 |
| 20260504172503 | 65 | 223 | 5.2 | 10.4 | 0.00 | 0.00 | 0.00 | 73 | 1017.8 |
| 20260504172403 | 65 | 222 | 4.3 | 10.4 | 0.00 | 0.00 | 0.00 | 73 | 1017.7 |
| 20260504172304 | 65 | 222 | 4.3 | 10.4 | 0.00 | 0.00 | 0.00 | 73 | 1017.7 |
| 20260504172203 | 65 | 222 | 4.3 | 10.4 | 0.00 | 0.00 | 0.00 | 73 | 1017.7 |
| 20260504172103 | 65 | 221 | 4.3 | 10.4 | 0.00 | 0.00 | 0.00 | 73 | 1017.7 |
| 20260504172003 | 65 | 220 | 4.3 | 10.4 | 0.00 | 0.00 | 0.00 | 72 | 1017.7 |
| 20260504171903 | 65 | 221 | 4.3 | 10.4 | 0.00 | 0.00 | 0.00 | 73 | 1017.7 |
| 20260504171803 | 65 | 221 | 4.3 | 10.4 | 0.00 | 0.00 | 0.00 | 73 | 1017.7 |
| 20260504171703 | 65 | 221 | 4.3 | 10.4 | 0.00 | 0.00 | 0.00 | 73 | 1017.7 |
| 20260504171603 | 65 | 221 | 4.3 | 10.4 | 0.00 | 0.00 | 0.00 | 72 | 1017.6 |
| 20260504171505 | 65 | 219 | 4.3 | 9.6 | 0.00 | 0.00 | 0.00 | 69 | 1017.6 |
| 20260504171403 | 65 | 221 | 4.3 | 9.6 | 0.00 | 0.00 | 0.00 | 72 | 1017.6 |
| 20260504171303 | 65 | 221 | 4.3 | 10.4 | 0.00 | 0.00 | 0.00 | 72 | 1017.6 |
| 20260504171203 | 65 | 222 | 4.3 | 10.4 | 0.00 | 0.00 | 0.00 | 72 | 1017.6 |
| 20260504171103 | 65 | 224 | 4.3 | 10.4 | 0.00 | 0.00 | 0.00 | 72 | 1017.6 |
| 20260504171003 | 65 | 225 | 4.3 | 10.4 | 0.00 | 0.00 | 0.00 | 72 | 1017.6 |
| 20260504170903 | 65 | 225 | 5.2 | 10.4 | 0.00 | 0.00 | 0.00 | 72 | 1017.5 |
| 20260504170803 | 65 | 225 | 5.2 | 10.4 | 0.00 | 0.00 | 0.00 | 73 | 1017.5 |
| 20260504170703 | 65 | 224 | 5.2 | 10.4 | 0.00 | 0.00 | 0.00 | 72 | 1017.5 |
| 20260504170603 | 65 | 224 | 5.2 | 10.4 | 0.00 | 0.00 | 0.00 | 72 | 1017.6 |
| 20260504170503 | 65 | 225 | 5.2 | 10.4 | 0.00 | 0.00 | 0.00 | 73 | 1017.6 |
| 20260504170403 | 65 | 225 | 5.2 | 10.4 | 0.00 | 0.00 | 0.00 | 73 | 1017.6 |
| 20260504170303 | 65 | 224 | 5.2 | 10.4 | 0.00 | 0.00 | 0.00 | 73 | 1017.6 |
| 20260504170203 | 65 | 221 | 4.3 | 10.4 | 0.00 | 0.00 | 0.00 | 73 | 1017.6 |
| 20260504160403 | 66 | 225 | 7.0 | 12.2 | 0.00 | 0.00 | 0.00 | 69 | 1017.8 |
| 20260504160303 | 66 | 226 | 7.0 | 12.2 | 0.00 | 0.00 | 0.00 | 70 | 1017.8 |
| 20260504160203 | 66 | 227 | 7.0 | 12.2 | 0.00 | 0.00 | 0.00 | 69 | 1017.8 |
| 20260504160103 | 66 | 225 | 7.0 | 12.2 | 0.00 | 0.00 | 0.00 | 69 | 1017.9 |